M I D A S
Marine Information and Data Acquisition System
Tripno 1476 of the Zeeleeuw from 2008-02-19 07:49:17 to 2008-02-19 15:36:32
Back to CruiseResearch ActivitiesStationsMapUnderway DataData graphs

EquipmentUnitsComment
TimeDGPSUTC
LatitudeDGPSDM.mWGS84
LongitudeDGPSDM.mWGS84
TemperatureSBE03/SBE38deg celciusITS90
ConductivitySBE21S/mITS90
SalinitySBE21 Practical Salinity Units
ChlorophylAChelsea fluorimeterg/lCalibrated in Aceton
Missing or incorrect values are displayed as -999
Sea surface data collected by the RV Zeeleeuw from 2008-02-19 07:51:23 to 2008-02-19 15:38:05
                                                                                    Next 1000 lines
Time Latitude Longitude Temperature Conductivity Salinity ChlorophylA
2008-02-19 07:51:33 51°13.663 2°55.952 -999 0.090505 0.55697 -1.691403
2008-02-19 07:51:38 51°13.664 2°55.95 -999 0.090505 0.556981 -1.657694
2008-02-19 07:51:43 51°13.664 2°55.948 -999 0.090505 0.556981 -1.657694
2008-02-19 07:51:48 51°13.665 2°55.944 -999 0.090505 0.556991 -1.691403
2008-02-19 07:51:53 51°13.665 2°55.94 -999 0.090505 0.556991 -1.657694
2008-02-19 07:51:58 51°13.667 2°55.935 -999 0.090505 0.557002 -1.691403
2008-02-19 07:52:04 51°13.668 2°55.928 -999 0.090505 0.557012 -1.691403
2008-02-19 07:52:09 51°13.669 2°55.921 -999 0.090505 0.557012 -1.657694
2008-02-19 07:52:14 51°13.67 2°55.914 -999 0.090505 0.557012 -1.657694
2008-02-19 07:52:19 51°13.671 2°55.906 -999 0.090505 0.557022 -1.691403
2008-02-19 07:52:24 51°13.672 2°55.897 -999 0.090505 0.557022 -1.657694
2008-02-19 07:52:29 51°13.674 2°55.889 -999 0.090505 0.557033 -1.657694
2008-02-19 07:52:34 51°13.675 2°55.879 -999 0.090505 0.557043 -1.657694
2008-02-19 07:52:39 51°13.677 2°55.87 -999 0.090505 0.557043 -1.657694
2008-02-19 07:52:44 51°13.678 2°55.861 -999 0.090505 0.557043 -1.657694
2008-02-19 07:52:49 51°13.68 2°55.852 -999 0.090505 0.557054 -1.691403
2008-02-19 07:52:54 51°13.681 2°55.844 -999 0.090505 0.557064 -1.691403
2008-02-19 07:52:59 51°13.682 2°55.835 -999 0.090505 0.557064 -1.691403
2008-02-19 07:53:04 51°13.683 2°55.826 -999 0.090505 0.557075 -1.691403
2008-02-19 07:53:09 51°13.684 2°55.817 -999 0.090505 0.557085 -1.691403
2008-02-19 07:53:14 51°13.686 2°55.809 -999 0.090505 0.557085 -1.691403
2008-02-19 07:53:19 51°13.687 2°55.8 -999 0.090505 0.557095 -1.691403
2008-02-19 07:53:24 51°13.688 2°55.792 -999 0.090505 0.557095 -1.657694
2008-02-19 07:53:29 51°13.689 2°55.784 -999 0.090505 0.557106 -1.657694
2008-02-19 07:53:34 51°13.689 2°55.776 -999 0.090505 0.557116 -1.657694
2008-02-19 07:53:39 51°13.69 2°55.768 -999 0.090505 0.557106 -1.691403
2008-02-19 07:53:44 51°13.691 2°55.761 -999 0.090505 0.557106 -1.691403
2008-02-19 07:53:49 51°13.691 2°55.754 -999 0.090505 0.557116 -1.691403
2008-02-19 07:53:54 51°13.691 2°55.747 -999 0.090505 0.557116 -1.657694
2008-02-19 07:53:58 51°13.692 2°55.742 -999 0.090505 0.557116 -1.657694
2008-02-19 07:54:04 51°13.692 2°55.735 -999 0.090505 0.557127 -1.657694
2008-02-19 07:54:09 51°13.692 2°55.73 -999 0.090505 0.557137 -1.691403
2008-02-19 07:54:14 51°13.692 2°55.726 -999 0.090505 0.557137 -1.691403
2008-02-19 07:54:18 51°13.692 2°55.723 -999 0.090505 0.557148 -1.657694
2008-02-19 07:54:23 51°13.692 2°55.72 -999 0.090505 0.557158 -1.691403
2008-02-19 07:54:28 51°13.692 2°55.718 -999 0.090505 0.557169 -1.691403
2008-02-19 07:54:33 51°13.693 2°55.716 -999 0.090505 0.557179 -1.691403
2008-02-19 07:54:38 51°13.693 2°55.715 -999 0.090505 0.557189 -1.657694
2008-02-19 07:54:43 51°13.693 2°55.715 -999 0.090505 0.557189 -1.657694
2008-02-19 07:54:48 51°13.694 2°55.714 -999 0.090505 0.5572 -1.691403
2008-02-19 07:54:53 51°13.695 2°55.714 -999 0.090505 0.55721 -1.657694
2008-02-19 07:54:58 51°13.695 2°55.715 -999 0.090505 0.557221 -1.657694
2008-02-19 07:55:03 51°13.696 2°55.715 -999 0.090505 0.557231 -1.691403
2008-02-19 07:55:09 51°13.698 2°55.716 -999 0.090505 0.557231 -1.691403
2008-02-19 07:55:14 51°13.7 2°55.717 -999 0.090505 0.557231 -1.691403
2008-02-19 07:55:18 51°13.701 2°55.718 -999 0.090505 0.557242 -1.691403
2008-02-19 07:55:23 51°13.704 2°55.719 -999 0.090505 0.557242 -1.657694
2008-02-19 07:55:28 51°13.708 2°55.72 -999 0.090505 0.557252 -1.691403
2008-02-19 07:55:33 51°13.713 2°55.721 -999 0.090505 0.557262 -1.691403
2008-02-19 07:55:38 51°13.718 2°55.721 -999 0.090505 0.557283 -1.657694
2008-02-19 07:55:43 51°13.723 2°55.719 -999 0.090505 0.557283 -1.657694
2008-02-19 07:55:48 51°13.729 2°55.716 -999 0.090505 0.557294 -1.657694
2008-02-19 07:55:53 51°13.736 2°55.712 -999 0.090505 0.557315 -1.657694
2008-02-19 07:55:58 51°13.743 2°55.706 -999 0.090505 0.557315 -1.657694
2008-02-19 07:56:02 51°13.75 2°55.702 -999 0.090505 0.557315 -1.691403
2008-02-19 07:56:07 51°13.759 2°55.695 -999 0.090505 0.557315 -1.691403
2008-02-19 07:56:12 51°13.767 2°55.689 -999 0.090505 0.557315 -1.691403
2008-02-19 07:56:17 51°13.776 2°55.682 -999 0.090505 0.557315 -1.657694
2008-02-19 07:56:22 51°13.785 2°55.674 -999 0.090505 0.557304 -1.691403
2008-02-19 07:56:27 51°13.795 2°55.666 -999 0.090505 0.557294 -1.691403
2008-02-19 07:56:32 51°13.805 2°55.658 -999 0.090505 0.557304 -1.691403
2008-02-19 07:56:37 51°13.814 2°55.65 -999 0.090505 0.557304 -1.691403
2008-02-19 07:56:42 51°13.824 2°55.642 -999 0.090505 0.557304 -1.691403
2008-02-19 07:56:47 51°13.834 2°55.634 -999 0.090505 0.557315 -1.691403
2008-02-19 07:56:52 51°13.844 2°55.626 -999 0.090505 0.557325 -1.657694
2008-02-19 07:56:57 51°13.855 2°55.618 -999 0.090505 0.557325 -1.691403
2008-02-19 07:57:02 51°13.866 2°55.61 -999 0.090505 0.557335 -1.657694
2008-02-19 07:57:07 51°13.875 2°55.603 -999 0.090505 0.557335 -1.657694
2008-02-19 07:57:11 51°13.883 2°55.598 -999 0.090505 0.557335 -1.657694
2008-02-19 07:57:17 51°13.894 2°55.589 -999 0.090505 0.557346 -1.691403
2008-02-19 07:57:21 51°13.901 2°55.584 -999 0.090505 0.557356 -1.691403
2008-02-19 07:57:26 51°13.91 2°55.578 -999 0.090505 0.557367 -1.691403
2008-02-19 07:57:31 51°13.918 2°55.571 -999 0.090505 0.557377 -1.657694
2008-02-19 07:57:36 51°13.926 2°55.565 -999 0.090505 0.557398 -1.657694
2008-02-19 07:57:41 51°13.935 2°55.558 -999 0.090505 0.557398 -1.657694
2008-02-19 07:57:46 51°13.944 2°55.553 -999 0.090505 0.557409 -1.657694
2008-02-19 07:57:51 51°13.952 2°55.547 -999 0.090505 0.557409 -1.657694
2008-02-19 07:57:56 51°13.959 2°55.542 -999 0.090505 0.557429 -1.691403
2008-02-19 07:58:01 51°13.967 2°55.537 -999 0.090505 0.55744 -1.691403
2008-02-19 07:58:06 51°13.974 2°55.532 -999 0.090505 0.55745 -1.691403
2008-02-19 07:58:10 51°13.979 2°55.528 -999 0.090505 0.55745 -1.691403
2008-02-19 07:58:15 51°13.986 2°55.523 -999 0.090505 0.55745 -1.691403
2008-02-19 07:58:20 51°13.992 2°55.518 -999 0.090505 0.55745 -1.691403
2008-02-19 07:58:25 51°13.999 2°55.513 -999 0.090505 0.557461 -1.691403
2008-02-19 07:58:30 51°14.005 2°55.508 -999 0.090505 0.557461 -1.691403
2008-02-19 07:58:35 51°14.012 2°55.503 -999 0.090505 0.557471 -1.657694
2008-02-19 07:58:40 51°14.018 2°55.499 -999 0.090505 0.557471 -1.657694
2008-02-19 07:58:45 51°14.024 2°55.494 -999 0.090505 0.557482 -1.657694
2008-02-19 07:58:50 51°14.031 2°55.49 -999 0.090505 0.557492 -1.691403
2008-02-19 07:58:55 51°14.038 2°55.485 -999 0.090505 0.557503 -1.691403
2008-02-19 07:59:00 51°14.044 2°55.48 -999 0.090505 0.557513 -1.691403
2008-02-19 07:59:05 51°14.05 2°55.475 -999 0.090505 0.557513 -1.657694
2008-02-19 07:59:10 51°14.056 2°55.47 -999 0.090505 0.557513 -1.657694
2008-02-19 07:59:15 51°14.063 2°55.466 -999 0.090505 0.557523 -1.691403
2008-02-19 07:59:21 51°14.07 2°55.46 -999 0.090505 0.557523 -1.691403
2008-02-19 07:59:26 51°14.076 2°55.455 -999 0.090505 0.557523 -1.691403
2008-02-19 07:59:31 51°14.082 2°55.449 -999 0.090505 0.557534 -1.691403
2008-02-19 07:59:36 51°14.088 2°55.444 -999 0.090505 0.557534 -1.657694
2008-02-19 07:59:41 51°14.095 2°55.439 -999 0.090505 0.557534 -1.657694
2008-02-19 07:59:46 51°14.102 2°55.433 -999 0.090505 0.557544 -1.691403
2008-02-19 07:59:51 51°14.109 2°55.426 -999 0.090505 0.557544 -1.691403
2008-02-19 07:59:56 51°14.117 2°55.419 -999 0.090505 0.557555 -1.691403
2008-02-19 08:00:01 51°14.125 2°55.412 -999 0.090505 0.557565 -1.657694
2008-02-19 08:00:06 51°14.134 2°55.405 -999 0.090505 0.557576 -1.691403
2008-02-19 08:00:10 51°14.141 2°55.398 -999 0.090505 0.557576 -1.691403
2008-02-19 08:00:15 51°14.151 2°55.39 -999 0.090505 0.557576 -1.691403
2008-02-19 08:00:20 51°14.16 2°55.38 -999 0.090505 0.557586 -1.691403
2008-02-19 08:00:26 51°14.171 2°55.368 -999 0.090505 0.557597 -1.691403
2008-02-19 08:00:30 51°14.179 2°55.359 -999 0.090505 0.557597 -1.691403
2008-02-19 08:00:35 51°14.189 2°55.347 -999 0.090505 0.557607 -1.691403
2008-02-19 08:00:40 51°14.199 2°55.335 -999 0.090505 0.557607 -1.691403
2008-02-19 08:00:45 51°14.209 2°55.322 -999 0.090505 0.557607 -1.691403
2008-02-19 08:00:50 51°14.219 2°55.309 -999 0.090505 0.557618 -1.691403
2008-02-19 08:00:55 51°14.229 2°55.295 -999 0.090505 0.557628 -1.691403
2008-02-19 08:01:00 51°14.239 2°55.281 -999 0.090505 0.557628 -1.657694
2008-02-19 08:01:05 51°14.249 2°55.266 -999 0.090505 0.557638 -1.691403
2008-02-19 08:01:10 51°14.258 2°55.251 -999 0.090505 0.557638 -1.691403
2008-02-19 08:01:15 51°14.268 2°55.235 -999 0.090505 0.557649 -1.657694
2008-02-19 08:01:20 51°14.277 2°55.218 -999 0.090505 0.557659 -1.691403
2008-02-19 08:01:25 51°14.286 2°55.201 -999 0.090505 0.557659 -1.691403
2008-02-19 08:01:30 51°14.295 2°55.183 -999 0.090505 0.55767 -1.691403
2008-02-19 08:01:35 51°14.304 2°55.164 -999 0.090505 0.55767 -1.691403
2008-02-19 08:01:40 51°14.312 2°55.146 -999 0.090505 0.55767 -1.691403
2008-02-19 08:01:45 51°14.321 2°55.127 -999 0.090505 0.55768 -1.657694
2008-02-19 08:01:50 51°14.33 2°55.108 -999 0.090505 0.55768 -1.691403
2008-02-19 08:01:55 51°14.338 2°55.089 -999 0.090505 0.557691 -1.691403
2008-02-19 08:02:00 51°14.347 2°55.069 -999 0.090505 0.557691 -1.691403
2008-02-19 08:02:05 51°14.355 2°55.049 -999 0.090505 0.557701 -1.657694
2008-02-19 08:02:10 51°14.363 2°55.028 -999 0.090505 0.557701 -1.657694
2008-02-19 08:02:15 51°14.371 2°55.007 -999 0.090505 0.557712 -1.657694
2008-02-19 08:02:20 51°14.379 2°54.986 -999 0.090505 0.557712 -1.657694
2008-02-19 08:02:25 51°14.386 2°54.964 -999 0.090505 0.557712 -1.691403
2008-02-19 08:02:30 51°14.393 2°54.942 -999 0.090505 0.557722 -1.691403
2008-02-19 08:02:35 51°14.401 2°54.919 -999 0.090505 0.557732 -1.691403
2008-02-19 08:02:40 51°14.408 2°54.897 -999 0.090505 0.557732 -1.691403
2008-02-19 08:02:45 51°14.415 2°54.873 -999 0.090505 0.557722 -1.657694
2008-02-19 08:02:50 51°14.423 2°54.851 -999 0.090505 0.557732 -1.691403
2008-02-19 08:02:55 51°14.43 2°54.828 -999 0.090505 0.557743 -1.691403
2008-02-19 08:03:00 51°14.438 2°54.805 -999 0.090505 0.557753 -1.657694
2008-02-19 08:03:04 51°14.444 2°54.787 -999 0.090505 0.557753 -1.691403
2008-02-19 08:03:10 51°14.454 2°54.76 -999 0.090505 0.557753 -1.691403
2008-02-19 08:03:15 51°14.463 2°54.738 -999 0.090505 0.557764 -1.657694
2008-02-19 08:03:20 51°14.473 2°54.716 -999 0.090505 0.557774 -1.691403
2008-02-19 08:03:25 51°14.482 2°54.694 -999 0.090505 0.557774 -1.657694
2008-02-19 08:03:30 51°14.492 2°54.672 -999 0.090401 0.557118 -1.691403
2008-02-19 08:03:35 51°14.502 2°54.65 -999 0.090401 0.557128 -1.691403
2008-02-19 08:03:40 51°14.512 2°54.628 -999 0.090401 0.557128 -1.691403
2008-02-19 08:03:45 51°14.522 2°54.606 -999 0.090401 0.557128 -1.657694
2008-02-19 08:03:50 51°14.532 2°54.584 -999 0.090401 0.557138 -1.691403
2008-02-19 08:03:55 51°14.542 2°54.561 -999 0.090401 0.557149 -1.657694
2008-02-19 08:04:00 51°14.552 2°54.539 -999 0.090401 0.557149 -1.691403
2008-02-19 08:04:05 51°14.562 2°54.517 -999 0.090401 0.557159 -1.691403
2008-02-19 08:04:10 51°14.571 2°54.494 -999 0.090401 0.557159 -1.691403
2008-02-19 08:04:15 51°14.581 2°54.472 -999 0.090401 0.55717 -1.691403
2008-02-19 08:04:20 51°14.591 2°54.449 -999 0.090401 0.55717 -1.691403
2008-02-19 08:04:25 51°14.6 2°54.426 -999 0.090401 0.557212 -1.691403
2008-02-19 08:04:30 51°14.607 2°54.401 -999 0.090401 0.557212 -1.657694
2008-02-19 08:04:35 51°14.614 2°54.376 -999 0.090401 0.557212 -1.691403
2008-02-19 08:04:40 51°14.621 2°54.351 -999 0.090401 0.557212 -1.691403
2008-02-19 08:04:45 51°14.626 2°54.325 -999 0.090401 0.557212 -1.691403
2008-02-19 08:04:50 51°14.633 2°54.299 -999 0.090401 0.557233 -1.691403
2008-02-19 08:04:55 51°14.637 2°54.272 -999 0.090401 0.557233 -1.691403
2008-02-19 08:05:00 51°14.641 2°54.246 -999 0.090401 0.557243 -1.657694
2008-02-19 08:05:05 51°14.646 2°54.219 -999 0.090401 0.557243 -1.691403
2008-02-19 08:05:10 51°14.649 2°54.192 -999 0.090401 0.557243 -1.691403
2008-02-19 08:05:15 51°14.654 2°54.165 -999 0.090401 0.557253 -1.691403
2008-02-19 08:05:20 51°14.658 2°54.138 -999 0.090401 0.557253 -1.657694
2008-02-19 08:05:25 51°14.664 2°54.112 -999 0.090401 0.557253 -1.691403
2008-02-19 08:05:30 51°14.67 2°54.085 -999 0.090401 0.557264 -1.691403
2008-02-19 08:05:35 51°14.676 2°54.06 -999 0.090401 0.557285 -1.657694
2008-02-19 08:05:40 51°14.682 2°54.036 -999 0.090401 0.557285 -1.657694
2008-02-19 08:05:45 51°14.687 2°54.013 -999 0.090401 0.557285 -1.657694
2008-02-19 08:05:50 51°14.692 2°53.993 -999 0.090401 0.557295 -1.657694
2008-02-19 08:05:55 51°14.697 2°53.974 -999 0.090401 0.557306 -1.657694
2008-02-19 08:06:00 51°14.701 2°53.957 -999 0.090401 0.557316 -1.691403
2008-02-19 08:06:05 51°14.707 2°53.942 -999 0.090401 0.557327 -1.691403
2008-02-19 08:06:10 51°14.712 2°53.927 -999 0.090401 0.557327 -1.691403
2008-02-19 08:06:15 51°14.717 2°53.914 -999 0.090401 0.557327 -1.691403
2008-02-19 08:06:20 51°14.721 2°53.903 -999 0.090401 0.557337 -1.691403
2008-02-19 08:06:25 51°14.726 2°53.893 -999 0.090401 0.557348 -1.691403
2008-02-19 08:06:30 51°14.731 2°53.883 -999 0.090401 0.557358 -1.657694
2008-02-19 08:06:35 51°14.736 2°53.875 -999 0.090401 0.557358 -1.691403
2008-02-19 08:06:40 51°14.74 2°53.867 -999 0.090401 0.557358 -1.691403
2008-02-19 08:06:45 51°14.744 2°53.86 -999 0.090401 0.557368 -1.657694
2008-02-19 08:06:50 51°14.748 2°53.854 -999 0.090401 0.557379 -1.691403
2008-02-19 08:06:55 51°14.752 2°53.848 -999 0.090401 0.557389 -1.657694
2008-02-19 08:07:00 51°14.756 2°53.843 -999 0.090401 0.5574 -1.691403
2008-02-19 08:07:05 51°14.76 2°53.838 -999 0.090401 0.55741 -1.691403
2008-02-19 08:07:10 51°14.764 2°53.834 -999 0.090401 0.55741 -1.691403
2008-02-19 08:07:15 51°14.768 2°53.829 -999 0.090401 0.557421 -1.691403
2008-02-19 08:07:20 51°14.771 2°53.826 -999 0.090401 0.557431 -1.691403
2008-02-19 08:07:25 51°14.774 2°53.822 -999 0.090401 0.557442 -1.691403
2008-02-19 08:07:30 51°14.778 2°53.818 -999 0.090401 0.557452 -1.691403
2008-02-19 08:07:35 51°14.781 2°53.815 -999 0.090401 0.557463 -1.657694
2008-02-19 08:07:40 51°14.784 2°53.811 -999 0.090401 0.557463 -1.657694
2008-02-19 08:07:45 51°14.787 2°53.808 -999 0.090401 0.557473 -1.657694
2008-02-19 08:07:50 51°14.789 2°53.805 -999 0.090401 0.557483 -1.657694
2008-02-19 08:07:55 51°14.792 2°53.802 -999 0.090401 0.557494 -1.691403
2008-02-19 08:08:00 51°14.795 2°53.799 -999 0.090401 0.557504 -1.657694
2008-02-19 08:08:05 51°14.797 2°53.797 -999 0.090401 0.557525 -1.691403
2008-02-19 08:08:10 51°14.8 2°53.794 -999 0.090401 0.557525 -1.691403
2008-02-19 08:08:15 51°14.802 2°53.792 -999 0.090401 0.557525 -1.691403
2008-02-19 08:08:20 51°14.804 2°53.789 -999 0.090401 0.557536 -1.691403
2008-02-19 08:08:25 51°14.806 2°53.787 -999 0.090401 0.557536 -1.691403
2008-02-19 08:08:30 51°14.808 2°53.785 -999 0.090401 0.557546 -1.691403
2008-02-19 08:08:35 51°14.81 2°53.782 -999 0.090401 0.557557 -1.691403
2008-02-19 08:08:40 51°14.812 2°53.78 -999 0.090401 0.557557 -1.691403
2008-02-19 08:08:45 51°14.814 2°53.778 -999 0.090401 0.557567 -1.657694
2008-02-19 08:08:50 51°14.816 2°53.776 -999 0.090401 0.557578 -1.657694
2008-02-19 08:08:55 51°14.818 2°53.774 -999 0.090401 0.557588 -1.691403
2008-02-19 08:09:00 51°14.82 2°53.772 -999 0.090401 0.557599 -1.691403
2008-02-19 08:09:05 51°14.821 2°53.77 -999 0.090401 0.557609 -1.657694
2008-02-19 08:09:10 51°14.823 2°53.768 -999 0.090401 0.557609 -1.657694
2008-02-19 08:09:15 51°14.824 2°53.766 -999 0.090401 0.557619 -1.657694
2008-02-19 08:09:20 51°14.826 2°53.764 -999 0.090401 0.55763 -1.691403
2008-02-19 08:09:25 51°14.827 2°53.763 -999 0.090401 0.55764 -1.691403
2008-02-19 08:09:30 51°14.829 2°53.761 -999 0.090401 0.557651 -1.657694
2008-02-19 08:09:35 51°14.829 2°53.76 -999 0.090401 0.557661 -1.691403
2008-02-19 08:09:40 51°14.83 2°53.758 -999 0.090401 0.557661 -1.691403
2008-02-19 08:09:45 51°14.829 2°53.757 -999 0.090401 0.557661 -1.657694
2008-02-19 08:09:50 51°14.829 2°53.755 -999 0.090401 0.557661 -1.691403
2008-02-19 08:09:55 51°14.827 2°53.754 -999 0.090401 0.557682 -1.691403
2008-02-19 08:10:00 51°14.825 2°53.752 -999 0.090401 0.557693 -1.691403
2008-02-19 08:10:05 51°14.823 2°53.751 -999 0.090401 0.557714 -1.691403
2008-02-19 08:10:10 51°14.82 2°53.75 -999 0.090401 0.557714 -1.691403
2008-02-19 08:10:15 51°14.816 2°53.749 -999 0.090401 0.557714 -1.691403
2008-02-19 08:10:21 51°14.812 2°53.748 -999 0.090401 0.557724 -1.657694
2008-02-19 08:10:27 51°14.807 2°53.747 -999 0.090401 0.557735 -1.691403
2008-02-19 08:10:33 51°14.802 2°53.747 -999 0.090401 0.557735 -1.691403
2008-02-19 08:10:38 51°14.797 2°53.747 -999 0.090401 0.557745 -1.691403
2008-02-19 08:10:44 51°14.791 2°53.748 -999 0.090401 0.557745 -1.691403
2008-02-19 08:10:49 51°14.786 2°53.748 -999 0.090401 0.557756 -1.657694
2008-02-19 08:10:54 51°14.781 2°53.749 -999 0.090401 0.557756 -1.691403
2008-02-19 08:10:59 51°14.776 2°53.75 -999 0.090401 0.557756 -1.657694
2008-02-19 08:11:04 51°14.771 2°53.751 -999 0.090401 0.557777 -1.657694
2008-02-19 08:11:09 51°14.766 2°53.751 -999 0.090401 0.557777 -1.657694
2008-02-19 08:11:14 51°14.761 2°53.753 -999 0.090401 0.557777 -1.657694
2008-02-19 08:11:18 51°14.758 2°53.753 -999 0.090401 0.557787 -1.657694
2008-02-19 08:11:24 51°14.754 2°53.753 -999 0.090401 0.557787 -1.691403
2008-02-19 08:11:29 51°14.752 2°53.752 -999 0.090401 0.557798 -1.657694
2008-02-19 08:11:33 51°14.75 2°53.752 -999 0.090401 0.557808 -1.691403
2008-02-19 08:11:38 51°14.749 2°53.75 -999 0.090401 0.557808 -1.657694
2008-02-19 08:11:43 51°14.749 2°53.749 -999 0.090401 0.557808 -1.657694
2008-02-19 08:11:48 51°14.749 2°53.747 -999 0.090401 0.557818 -1.691403
2008-02-19 08:11:53 51°14.751 2°53.745 -999 0.090401 0.557818 -1.657694
2008-02-19 08:11:58 51°14.753 2°53.743 -999 0.090401 0.557818 -1.657694
2008-02-19 08:12:03 51°14.756 2°53.742 -999 0.090401 0.557829 -1.691403
2008-02-19 08:12:08 51°14.759 2°53.742 -999 0.090401 0.557829 -1.657694
2008-02-19 08:12:13 51°14.763 2°53.742 -999 0.090401 0.557829 -1.657694
2008-02-19 08:12:18 51°14.766 2°53.743 -999 0.090401 0.55785 -1.691403
2008-02-19 08:12:23 51°14.77 2°53.745 -999 0.090401 0.55786 -1.657694
2008-02-19 08:12:27 51°14.774 2°53.748 -999 0.090401 0.557871 -1.691403
2008-02-19 08:12:32 51°14.778 2°53.752 -999 0.090401 0.557892 -1.691403
2008-02-19 08:12:37 51°14.781 2°53.758 -999 0.090401 0.557902 -1.691403
2008-02-19 08:12:42 51°14.784 2°53.764 -999 0.090401 0.557902 -1.691403
2008-02-19 08:12:47 51°14.787 2°53.77 -999 0.090401 0.557923 -1.691403
2008-02-19 08:12:52 51°14.79 2°53.776 -999 0.090401 0.557934 -1.691403
2008-02-19 08:12:57 51°14.792 2°53.782 -999 0.090401 0.557944 -1.691403
2008-02-19 08:13:02 51°14.794 2°53.788 -999 0.090401 0.557944 -1.657694
2008-02-19 08:13:07 51°14.795 2°53.794 -999 0.090401 0.557944 -1.691403
2008-02-19 08:13:12 51°14.796 2°53.799 -999 0.090401 0.557944 -1.691403
2008-02-19 08:13:16 51°14.797 2°53.804 -999 0.090401 0.557944 -1.691403
2008-02-19 08:13:22 51°14.798 2°53.81 -999 0.090401 0.557955 -1.691403
2008-02-19 08:13:26 51°14.799 2°53.814 -999 0.090401 0.557965 -1.691403
2008-02-19 08:13:31 51°14.799 2°53.819 -999 0.090401 0.557976 -1.691403
2008-02-19 08:13:36 51°14.8 2°53.824 -999 0.090401 0.557976 -1.691403
2008-02-19 08:13:41 51°14.801 2°53.829 -999 0.090401 0.557976 -1.691403
2008-02-19 08:13:46 51°14.801 2°53.833 -999 0.090401 0.557986 -1.691403
2008-02-19 08:13:51 51°14.802 2°53.838 -999 0.090401 0.557997 -1.691403
2008-02-19 08:13:56 51°14.802 2°53.842 -999 0.090401 0.557997 -1.691403
2008-02-19 08:14:01 51°14.803 2°53.846 -999 0.090401 0.558007 -1.657694
2008-02-19 08:14:06 51°14.803 2°53.85 -999 0.090401 0.558018 -1.691403
2008-02-19 08:14:10 51°14.803 2°53.853 -999 0.090401 0.558018 -1.691403
2008-02-19 08:14:15 51°14.804 2°53.856 -999 0.090401 0.558018 -1.691403
2008-02-19 08:14:21 51°14.804 2°53.86 -999 0.090401 0.558028 -1.691403
2008-02-19 08:14:26 51°14.805 2°53.862 -999 0.090297 0.55737 -1.691403
2008-02-19 08:14:30 51°14.805 2°53.864 -999 0.090401 0.558049 -1.691403
2008-02-19 08:14:35 51°14.806 2°53.866 -999 0.090401 0.55806 -1.691403
2008-02-19 08:14:40 51°14.806 2°53.868 -999 0.090401 0.55806 -1.691403
2008-02-19 08:14:45 51°14.806 2°53.868 -999 0.090401 0.55807 -1.657694
2008-02-19 08:14:50 51°14.806 2°53.869 -999 0.090297 0.557402 -1.657694
2008-02-19 08:14:55 51°14.806 2°53.869 -999 0.090297 0.557412 -1.657694
2008-02-19 08:15:00 51°14.806 2°53.868 -999 0.090297 0.557412 -1.691403
2008-02-19 08:15:05 51°14.806 2°53.869 -999 0.090297 0.557412 -1.691403
2008-02-19 08:15:10 51°14.806 2°53.868 -999 0.090297 0.557412 -1.691403
2008-02-19 08:15:14 51°14.806 2°53.868 -999 0.090297 0.557433 -1.657694
2008-02-19 08:15:20 51°14.806 2°53.868 -999 0.090297 0.557433 -1.691403
2008-02-19 08:15:25 51°14.806 2°53.868 -999 0.090297 0.557444 -1.691403
2008-02-19 08:15:30 51°14.806 2°53.867 -999 0.090297 0.557454 -1.691403
2008-02-19 08:15:35 51°14.807 2°53.866 -999 0.090297 0.557465 -1.691403
2008-02-19 08:15:40 51°14.807 2°53.866 -999 0.090297 0.557465 -1.691403
2008-02-19 08:15:45 51°14.807 2°53.865 -999 0.090297 0.557475 -1.657694
2008-02-19 08:15:50 51°14.808 2°53.865 -999 0.090297 0.557475 -1.657694
2008-02-19 08:15:55 51°14.808 2°53.864 -999 0.090297 0.557485 -1.657694
2008-02-19 08:16:00 51°14.808 2°53.864 -999 0.090297 0.557496 -1.657694
2008-02-19 08:16:05 51°14.809 2°53.863 -999 0.090297 0.557496 -1.657694
2008-02-19 08:16:10 51°14.809 2°53.863 -999 0.090297 0.557496 -1.657694
2008-02-19 08:16:15 51°14.81 2°53.862 -999 0.090297 0.557496 -1.657694
2008-02-19 08:16:20 51°14.81 2°53.861 -999 0.090297 0.557496 -1.657694
2008-02-19 08:16:25 51°14.811 2°53.861 -999 0.090297 0.557506 -1.657694
2008-02-19 08:16:30 51°14.812 2°53.86 -999 0.090297 0.557506 -1.657694
2008-02-19 08:16:35 51°14.812 2°53.859 -999 0.090297 0.557506 -1.657694
2008-02-19 08:16:40 51°14.813 2°53.859 -999 0.090297 0.557506 -1.657694
2008-02-19 08:16:45 51°14.813 2°53.858 -999 0.090297 0.557517 -1.657694
2008-02-19 08:16:50 51°14.814 2°53.858 -999 0.090297 0.557527 -1.657694
2008-02-19 08:16:55 51°14.815 2°53.857 -999 0.090297 0.557527 -1.657694
2008-02-19 08:17:00 51°14.815 2°53.856 -999 0.090297 0.557538 -1.657694
2008-02-19 08:17:05 51°14.816 2°53.856 -999 0.090297 0.557548 -1.657694
2008-02-19 08:17:10 51°14.817 2°53.855 -999 0.090297 0.557548 -1.657694
2008-02-19 08:17:15 51°14.817 2°53.854 -999 0.090297 0.557548 -1.657694
2008-02-19 08:17:20 51°14.818 2°53.853 -999 0.090297 0.557559 -1.657694
2008-02-19 08:17:25 51°14.818 2°53.853 -999 0.090297 0.557569 -1.657694
2008-02-19 08:17:30 51°14.819 2°53.852 -999 0.090297 0.55758 -1.657694
2008-02-19 08:17:35 51°14.819 2°53.852 -999 0.090297 0.55758 -1.657694
2008-02-19 08:17:40 51°14.82 2°53.851 -999 0.090297 0.55758 -1.657694
2008-02-19 08:17:45 51°14.82 2°53.851 -999 0.090297 0.55758 -1.657694
2008-02-19 08:17:50 51°14.82 2°53.85 -999 0.090297 0.55759 -1.657694
2008-02-19 08:17:55 51°14.821 2°53.85 -999 0.090297 0.557601 -1.657694
2008-02-19 08:18:00 51°14.821 2°53.849 -999 0.090297 0.557611 -1.657694
2008-02-19 08:18:05 51°14.822 2°53.848 -999 0.090297 0.557622 -1.657694
2008-02-19 08:18:10 51°14.822 2°53.847 -999 0.090297 0.557622 -1.657694
2008-02-19 08:18:15 51°14.822 2°53.847 -999 0.090297 0.557632 -1.657694
2008-02-19 08:18:20 51°14.823 2°53.846 -999 0.090297 0.557643 -1.657694
2008-02-19 08:18:25 51°14.823 2°53.846 -999 0.090297 0.557653 -1.657694
2008-02-19 08:18:30 51°14.823 2°53.845 -999 0.090297 0.557664 -1.657694
2008-02-19 08:18:35 51°14.824 2°53.844 -999 0.090297 0.557674 -1.657694
2008-02-19 08:18:40 51°14.824 2°53.844 -999 0.090297 0.557674 -1.657694
2008-02-19 08:18:45 51°14.824 2°53.843 -999 0.090297 0.557685 -1.657694
2008-02-19 08:18:50 51°14.825 2°53.842 -999 0.090297 0.557695 -1.657694
2008-02-19 08:18:55 51°14.825 2°53.842 -999 0.090297 0.557695 -1.657694
2008-02-19 08:19:00 51°14.825 2°53.841 -999 0.090297 0.557716 -1.657694
2008-02-19 08:19:05 51°14.825 2°53.84 -999 0.090297 0.557716 -1.657694
2008-02-19 08:19:10 51°14.826 2°53.84 -999 0.090297 0.557716 -1.657694
2008-02-19 08:19:15 51°14.826 2°53.839 -999 0.090297 0.557727 -1.657694
2008-02-19 08:19:20 51°14.826 2°53.838 -999 0.090297 0.557737 -1.657694
2008-02-19 08:19:25 51°14.826 2°53.838 -999 0.090297 0.557748 -1.657694
2008-02-19 08:19:30 51°14.826 2°53.837 -999 0.090297 0.557758 -1.657694
2008-02-19 08:19:35 51°14.827 2°53.837 -999 0.090297 0.557769 -1.657694
2008-02-19 08:19:40 51°14.827 2°53.836 -999 0.090297 0.557769 -1.657694
2008-02-19 08:19:45 51°14.827 2°53.835 -999 0.090297 0.557779 -1.657694
2008-02-19 08:19:50 51°14.827 2°53.834 -999 0.090297 0.55779 -1.657694
2008-02-19 08:19:55 51°14.827 2°53.833 -999 0.090297 0.5578 -1.657694
2008-02-19 08:20:00 51°14.827 2°53.833 -999 0.090297 0.55781 -1.657694
2008-02-19 08:20:05 51°14.827 2°53.832 -999 0.090297 0.557831 -1.657694
2008-02-19 08:20:10 51°14.828 2°53.831 -999 0.090297 0.557831 -1.657694
2008-02-19 08:20:15 51°14.828 2°53.831 -999 0.090297 0.557831 -1.657694
2008-02-19 08:20:20 51°14.828 2°53.831 -999 0.090297 0.557852 -1.657694
2008-02-19 08:20:25 51°14.828 2°53.83 -999 0.090297 0.557863 -1.657694
2008-02-19 08:20:30 51°14.829 2°53.83 -999 0.090297 0.557873 -1.657694
2008-02-19 08:20:35 51°14.829 2°53.829 -999 0.090297 0.557884 -1.657694
2008-02-19 08:20:40 51°14.829 2°53.829 -999 0.090297 0.557884 -1.657694
2008-02-19 08:20:45 51°14.829 2°53.829 -999 0.090297 0.557884 -1.657694
2008-02-19 08:20:50 51°14.829 2°53.829 -999 0.090297 0.557905 -1.657694
2008-02-19 08:20:55 51°14.83 2°53.828 -999 0.090297 0.557915 -1.657694
2008-02-19 08:21:00 51°14.83 2°53.828 -999 0.090297 0.557926 -1.657694
2008-02-19 08:21:05 51°14.83 2°53.828 -999 0.090297 0.557936 -1.657694
2008-02-19 08:21:10 51°14.83 2°53.828 -999 0.090297 0.557936 -1.657694
2008-02-19 08:21:15 51°14.83 2°53.828 -999 0.090297 0.557947 -1.657694
2008-02-19 08:21:20 51°14.831 2°53.827 -999 0.090297 0.557968 -1.657694
2008-02-19 08:21:25 51°14.831 2°53.827 -999 0.090297 0.557978 -1.657694
2008-02-19 08:21:30 51°14.831 2°53.827 -999 0.090297 0.557989 -1.657694
2008-02-19 08:21:35 51°14.831 2°53.827 -999 0.090297 0.557999 -1.657694
2008-02-19 08:21:40 51°14.832 2°53.827 -999 0.090297 0.557999 -1.657694
2008-02-19 08:21:45 51°14.832 2°53.827 -999 0.090297 0.55801 -1.657694
2008-02-19 08:21:50 51°14.832 2°53.827 -999 0.090297 0.558031 -1.657694
2008-02-19 08:21:55 51°14.832 2°53.827 -999 0.090297 0.558041 -1.657694
2008-02-19 08:22:00 51°14.832 2°53.827 -999 0.090297 0.558052 -1.657694
2008-02-19 08:22:05 51°14.832 2°53.827 -999 0.090297 0.558062 -1.657694
2008-02-19 08:22:10 51°14.832 2°53.828 -999 0.090297 0.558062 -1.657694
2008-02-19 08:22:15 51°14.833 2°53.828 -999 0.090297 0.558073 -1.657694
2008-02-19 08:22:20 51°14.833 2°53.828 -999 0.090297 0.558094 -1.657694
2008-02-19 08:22:25 51°14.833 2°53.828 -999 0.090297 0.558104 -1.657694
2008-02-19 08:22:30 51°14.833 2°53.828 -999 0.090297 0.558115 -1.657694
2008-02-19 08:22:35 51°14.833 2°53.829 -999 0.090297 0.558136 -1.657694
2008-02-19 08:22:40 51°14.833 2°53.829 -999 0.090297 0.558136 -1.657694
2008-02-19 08:22:45 51°14.833 2°53.829 -999 0.090297 0.558146 -1.657694
2008-02-19 08:22:50 51°14.833 2°53.829 -999 0.090297 0.558157 -1.657694
2008-02-19 08:22:55 51°14.833 2°53.83 -999 0.090297 0.558167 -1.657694
2008-02-19 08:23:00 51°14.833 2°53.83 -999 0.090297 0.558178 -1.657694
2008-02-19 08:23:05 51°14.833 2°53.831 -999 0.090297 0.558188 -1.657694
2008-02-19 08:23:10 51°14.833 2°53.831 -999 0.090297 0.558188 -1.657694
2008-02-19 08:23:15 51°14.833 2°53.832 -999 0.090297 0.558209 -1.657694
2008-02-19 08:23:20 51°14.833 2°53.832 -999 0.090297 0.55822 -1.657694
2008-02-19 08:23:25 51°14.833 2°53.832 -999 0.090297 0.55823 -1.657694
2008-02-19 08:23:30 51°14.833 2°53.833 -999 0.090297 0.558241 -1.657694
2008-02-19 08:23:35 51°14.833 2°53.834 -999 0.090297 0.558262 -1.657694
2008-02-19 08:23:40 51°14.833 2°53.834 -999 0.090297 0.558262 -1.657694
2008-02-19 08:23:45 51°14.833 2°53.835 -999 0.090297 0.558273 -1.657694
2008-02-19 08:23:50 51°14.833 2°53.835 -999 0.090297 0.558283 -1.657694
2008-02-19 08:23:55 51°14.833 2°53.836 -999 0.090297 0.558294 -1.657694
2008-02-19 08:24:00 51°14.833 2°53.837 -999 0.090193 0.557645 -1.657694
2008-02-19 08:24:05 51°14.833 2°53.839 -999 0.090297 0.558315 -1.657694
2008-02-19 08:24:10 51°14.833 2°53.842 -999 0.090297 0.558315 -1.657694
2008-02-19 08:24:15 51°14.833 2°53.846 -999 0.090193 0.557656 -1.657694
2008-02-19 08:24:20 51°14.833 2°53.851 -999 0.090297 0.558336 -1.657694
2008-02-19 08:24:25 51°14.834 2°53.856 -999 0.090193 0.557677 -1.657694
2008-02-19 08:24:30 51°14.834 2°53.863 -999 0.090193 0.557687 -1.657694
2008-02-19 08:24:35 51°14.834 2°53.872 -999 0.090193 0.557698 -1.657694
2008-02-19 08:24:40 51°14.836 2°53.882 -999 0.090193 0.557698 -1.657694
2008-02-19 08:24:45 51°14.838 2°53.893 -999 0.090193 0.557708 -1.657694
2008-02-19 08:24:50 51°14.841 2°53.904 -999 0.090193 0.55774 -1.657694
2008-02-19 08:24:55 51°14.844 2°53.917 -999 0.090193 0.55775 -1.657694
2008-02-19 08:25:00 51°14.848 2°53.93 -999 0.090193 0.557761 -1.657694
2008-02-19 08:25:05 51°14.852 2°53.944 -999 0.090193 0.557761 -1.657694
2008-02-19 08:25:10 51°14.855 2°53.959 -999 0.090193 0.557761 -1.657694
2008-02-19 08:25:15 51°14.859 2°53.974 -999 0.090193 0.557782 -1.657694
2008-02-19 08:25:20 51°14.863 2°53.99 -999 0.090193 0.557792 -1.657694
2008-02-19 08:25:25 51°14.867 2°54.005 -999 0.090193 0.557803 -1.657694
2008-02-19 08:25:30 51°14.871 2°54.019 -999 0.090193 0.557813 -1.657694
2008-02-19 08:25:35 51°14.876 2°54.033 -999 0.090193 0.557813 -1.657694
2008-02-19 08:25:40 51°14.88 2°54.046 -999 0.090193 0.557813 -1.657694
2008-02-19 08:25:45 51°14.885 2°54.058 -999 0.090193 0.557834 -1.657694
2008-02-19 08:25:50 51°14.889 2°54.07 -999 0.090193 0.557845 -1.657694
2008-02-19 08:25:55 51°14.894 2°54.081 -999 0.090193 0.557855 -1.657694
2008-02-19 08:26:00 51°14.9 2°54.091 -999 0.090193 0.557866 -1.657694
2008-02-19 08:26:05 51°14.905 2°54.101 -999 0.090193 0.557876 -1.657694
2008-02-19 08:26:10 51°14.91 2°54.111 -999 0.090193 0.557876 -1.657694
2008-02-19 08:26:15 51°14.916 2°54.121 -999 0.090193 0.557887 -1.657694
2008-02-19 08:26:20 51°14.921 2°54.13 -999 0.090193 0.557897 -1.657694
2008-02-19 08:26:25 51°14.926 2°54.139 -999 0.090193 0.557897 -1.657694
2008-02-19 08:26:30 51°14.932 2°54.148 -999 0.090193 0.557908 -1.657694
2008-02-19 08:26:35 51°14.937 2°54.158 -999 0.090193 0.557908 -1.657694
2008-02-19 08:26:40 51°14.942 2°54.167 -999 0.090193 0.557908 -1.657694
2008-02-19 08:26:45 51°14.947 2°54.176 -999 0.090193 0.557929 -1.657694
2008-02-19 08:26:50 51°14.953 2°54.185 -999 0.090193 0.557939 -1.657694
2008-02-19 08:26:55 51°14.958 2°54.194 -999 0.090193 0.557939 -1.657694
2008-02-19 08:27:00 51°14.963 2°54.203 -999 0.090193 0.55795 -1.657694
2008-02-19 08:27:05 51°14.968 2°54.212 -999 0.090193 0.557971 -1.657694
2008-02-19 08:27:10 51°14.973 2°54.221 -999 0.090193 0.557971 -1.657694
2008-02-19 08:27:15 51°14.978 2°54.23 -999 0.090193 0.557971 -1.657694
2008-02-19 08:27:20 51°14.983 2°54.239 -999 0.090193 0.557981 -1.657694
2008-02-19 08:27:25 51°14.988 2°54.247 -999 0.090193 0.558002 -1.657694
2008-02-19 08:27:30 51°14.993 2°54.256 -999 0.090193 0.558013 -1.657694
2008-02-19 08:27:35 51°14.997 2°54.264 -999 0.090193 0.558023 -1.657694
2008-02-19 08:27:40 51°15.002 2°54.272 -999 0.090193 0.558023 -1.657694
2008-02-19 08:27:45 51°15.006 2°54.279 -999 0.090193 0.558023 -1.657694
2008-02-19 08:27:50 51°15.01 2°54.287 -999 0.090193 0.558034 -1.657694
2008-02-19 08:27:55 51°15.014 2°54.294 -999 0.090193 0.558044 -1.657694
2008-02-19 08:28:00 51°15.019 2°54.302 -999 0.090193 0.558055 -1.657694
2008-02-19 08:28:05 51°15.023 2°54.309 -999 0.090193 0.558066 -1.657694
2008-02-19 08:28:10 51°15.027 2°54.317 -999 0.090193 0.558066 -1.657694
2008-02-19 08:28:15 51°15.031 2°54.324 -999 0.090193 0.558076 -1.657694
2008-02-19 08:28:20 51°15.036 2°54.331 -999 0.090193 0.558087 -1.657694
2008-02-19 08:28:25 51°15.039 2°54.338 -999 0.090193 0.558108 -1.657694
2008-02-19 08:28:30 51°15.043 2°54.345 -999 0.090193 0.558118 -1.657694
2008-02-19 08:28:35 51°15.047 2°54.353 -999 0.090193 0.558129 -1.657694
2008-02-19 08:28:40 51°15.05 2°54.36 -999 0.090193 0.558129 -1.657694
2008-02-19 08:28:45 51°15.053 2°54.367 -999 0.090193 0.558139 -1.657694
2008-02-19 08:28:50 51°15.057 2°54.374 -999 0.090193 0.55815 -1.657694
2008-02-19 08:28:55 51°15.06 2°54.381 -999 0.090193 0.558171 -1.657694
2008-02-19 08:29:00 51°15.063 2°54.387 -999 0.090193 0.558181 -1.657694
2008-02-19 08:29:05 51°15.066 2°54.394 -999 0.090193 0.558192 -1.657694
2008-02-19 08:29:10 51°15.069 2°54.4 -999 0.090193 0.558192 -1.657694
2008-02-19 08:29:15 51°15.072 2°54.406 -999 0.090193 0.558202 -1.657694
2008-02-19 08:29:20 51°15.074 2°54.412 -999 0.090193 0.558213 -1.657694
2008-02-19 08:29:24 51°15.076 2°54.417 -999 0.090193 0.558223 -1.657694
2008-02-19 08:29:30 51°15.079 2°54.423 -999 0.090193 0.558244 -1.657694
2008-02-19 08:29:34 51°15.081 2°54.428 -999 0.090193 0.558255 -1.657694
2008-02-19 08:29:40 51°15.084 2°54.434 -999 0.090193 0.558255 -1.657694
2008-02-19 08:29:44 51°15.086 2°54.438 -999 0.090193 0.558276 -1.657694
2008-02-19 08:29:50 51°15.088 2°54.444 -999 0.090193 0.558297 -1.657694
2008-02-19 08:29:55 51°15.09 2°54.448 -999 0.090193 0.558318 -1.657694
2008-02-19 08:30:00 51°15.092 2°54.453 -999 0.090193 0.558329 -1.657694
2008-02-19 08:30:04 51°15.094 2°54.456 -999 0.090193 0.55835 -1.657694
2008-02-19 08:30:10 51°15.096 2°54.461 -999 0.090193 0.55835 -1.657694
2008-02-19 08:30:14 51°15.097 2°54.464 -999 0.090193 0.558371 -1.657694
2008-02-19 08:30:20 51°15.099 2°54.468 -999 0.090193 0.558381 -1.657694
2008-02-19 08:30:25 51°15.101 2°54.472 -999 0.090193 0.558402 -1.657694
2008-02-19 08:30:30 51°15.102 2°54.475 -999 0.090193 0.558413 -1.657694
2008-02-19 08:30:34 51°15.103 2°54.478 -999 0.090193 0.558434 -1.657694
2008-02-19 08:30:40 51°15.105 2°54.481 -999 0.090193 0.558434 -1.657694
2008-02-19 08:30:44 51°15.106 2°54.484 -999 0.090193 0.558444 -1.657694
2008-02-19 08:30:50 51°15.107 2°54.487 -999 0.090193 0.558466 -1.657694
2008-02-19 08:30:54 51°15.108 2°54.489 -999 0.090193 0.558476 -1.657694
2008-02-19 08:31:00 51°15.109 2°54.492 -999 0.090193 0.558487 -1.657694
2008-02-19 08:31:04 51°15.109 2°54.494 -999 0.090193 0.558508 -1.657694
2008-02-19 08:31:10 51°15.11 2°54.496 -999 0.090193 0.558508 -1.657694
2008-02-19 08:31:14 51°15.11 2°54.498 -999 0.090089 0.557848 -1.657694
2008-02-19 08:31:20 51°15.111 2°54.5 -999 0.090089 0.557869 -1.657694
2008-02-19 08:31:25 51°15.112 2°54.501 -999 0.090193 0.55855 -1.657694
2008-02-19 08:31:30 51°15.112 2°54.503 -999 0.090089 0.55789 -1.657694
2008-02-19 08:31:35 51°15.112 2°54.504 -999 0.090089 0.5579 -1.657694
2008-02-19 08:31:40 51°15.113 2°54.505 -999 0.090089 0.5579 -1.657694
2008-02-19 08:31:45 51°15.113 2°54.506 -999 0.090089 0.557911 -1.657694
2008-02-19 08:31:50 51°15.114 2°54.507 -999 0.090089 0.557932 -1.657694
2008-02-19 08:31:54 51°15.114 2°54.508 -999 0.090089 0.557943 -1.657694
2008-02-19 08:32:00 51°15.114 2°54.509 -999 0.090089 0.557964 -1.657694
2008-02-19 08:32:05 51°15.114 2°54.51 -999 0.090089 0.557974 -1.657694
2008-02-19 08:32:10 51°15.115 2°54.51 -999 0.090089 0.557974 -1.657694
2008-02-19 08:32:15 51°15.115 2°54.511 -999 0.090089 0.557985 -1.657694
2008-02-19 08:32:20 51°15.115 2°54.512 -999 0.090089 0.558006 -1.657694
2008-02-19 08:32:25 51°15.115 2°54.512 -999 0.090089 0.558016 -1.657694
2008-02-19 08:32:30 51°15.116 2°54.513 -999 0.090089 0.558027 -1.657694
2008-02-19 08:32:35 51°15.116 2°54.513 -999 0.090089 0.558037 -1.657694
2008-02-19 08:32:40 51°15.116 2°54.514 -999 0.090089 0.558037 -1.657694
2008-02-19 08:32:45 51°15.116 2°54.514 -999 0.090089 0.558058 -1.657694
2008-02-19 08:32:50 51°15.117 2°54.514 -999 0.090089 0.558058 -1.657694
2008-02-19 08:32:55 51°15.117 2°54.515 -999 0.090089 0.558079 -1.657694
2008-02-19 08:33:00 51°15.117 2°54.515 -999 0.090089 0.55809 -1.657694
2008-02-19 08:33:05 51°15.117 2°54.515 -999 0.090089 0.5581 -1.657694
2008-02-19 08:33:10 51°15.117 2°54.515 -999 0.090089 0.5581 -1.657694
2008-02-19 08:33:15 51°15.117 2°54.516 -999 0.090089 0.5581 -1.657694
2008-02-19 08:33:20 51°15.118 2°54.516 -999 0.090089 0.558122 -1.657694
2008-02-19 08:33:26 51°15.118 2°54.516 -999 0.090089 0.558132 -1.657694
2008-02-19 08:33:30 51°15.118 2°54.516 -999 0.090089 0.558143 -1.657694
2008-02-19 08:33:35 51°15.118 2°54.516 -999 0.090089 0.558153 -1.657694
2008-02-19 08:33:40 51°15.119 2°54.516 -999 0.090089 0.558153 -1.657694
2008-02-19 08:33:45 51°15.119 2°54.516 -999 0.090089 0.558164 -1.657694
2008-02-19 08:33:50 51°15.119 2°54.516 -999 0.090089 0.558174 -1.657694
2008-02-19 08:33:55 51°15.119 2°54.516 -999 0.090089 0.558185 -1.657694
2008-02-19 08:34:00 51°15.12 2°54.516 -999 0.090089 0.558195 -1.657694
2008-02-19 08:34:05 51°15.12 2°54.516 -999 0.090089 0.558206 -1.657694
2008-02-19 08:34:10 51°15.12 2°54.515 -999 0.090089 0.558206 -1.657694
2008-02-19 08:34:15 51°15.12 2°54.515 -999 0.090089 0.558216 -1.657694
2008-02-19 08:34:20 51°15.121 2°54.515 -999 0.090089 0.558227 -1.657694
2008-02-19 08:34:25 51°15.121 2°54.515 -999 0.090089 0.558237 -1.657694
2008-02-19 08:34:30 51°15.121 2°54.514 -999 0.090089 0.558248 -1.657694
2008-02-19 08:34:35 51°15.121 2°54.514 -999 0.090089 0.558259 -1.657694
2008-02-19 08:34:40 51°15.121 2°54.513 -999 0.090089 0.558259 -1.657694
2008-02-19 08:34:45 51°15.121 2°54.513 -999 0.090089 0.558269 -1.657694
2008-02-19 08:34:50 51°15.122 2°54.512 -999 0.090089 0.558269 -1.657694
2008-02-19 08:34:55 51°15.122 2°54.512 -999 0.090089 0.55829 -1.657694
2008-02-19 08:35:00 51°15.122 2°54.511 -999 0.090089 0.558301 -1.657694
2008-02-19 08:35:05 51°15.122 2°54.511 -999 0.090089 0.558301 -1.657694
2008-02-19 08:35:10 51°15.122 2°54.51 -999 0.090089 0.558301 -1.657694
2008-02-19 08:35:15 51°15.123 2°54.51 -999 0.090089 0.558311 -1.657694
2008-02-19 08:35:20 51°15.123 2°54.509 -999 0.090089 0.558322 -1.657694
2008-02-19 08:35:25 51°15.123 2°54.509 -999 0.090089 0.558343 -1.657694
2008-02-19 08:35:30 51°15.123 2°54.508 -999 0.090089 0.558343 -1.657694
2008-02-19 08:35:35 51°15.123 2°54.507 -999 0.090089 0.558353 -1.657694
2008-02-19 08:35:40 51°15.123 2°54.507 -999 0.090089 0.558353 -1.657694
2008-02-19 08:35:44 51°15.123 2°54.507 -999 0.090089 0.558353 -1.657694
2008-02-19 08:35:50 51°15.123 2°54.506 -999 0.090089 0.558375 -1.657694
2008-02-19 08:35:55 51°15.124 2°54.505 -999 0.090089 0.558385 -1.657694
2008-02-19 08:36:00 51°15.124 2°54.505 -999 0.090089 0.558396 -1.657694
2008-02-19 08:36:05 51°15.124 2°54.504 -999 0.090089 0.558406 -1.657694
2008-02-19 08:36:10 51°15.124 2°54.504 -999 0.090089 0.558406 -1.657694
2008-02-19 08:36:15 51°15.124 2°54.503 -999 0.090089 0.558417 -1.657694
2008-02-19 08:36:20 51°15.124 2°54.503 -999 0.090089 0.558417 -1.657694
2008-02-19 08:36:25 51°15.125 2°54.502 -999 0.090089 0.558427 -1.657694
2008-02-19 08:36:30 51°15.125 2°54.502 -999 0.090089 0.558438 -1.657694
2008-02-19 08:36:35 51°15.125 2°54.502 -999 0.090089 0.558448 -1.657694
2008-02-19 08:36:40 51°15.126 2°54.501 -999 0.090089 0.558448 -1.657694
2008-02-19 08:36:45 51°15.126 2°54.501 -999 0.090089 0.558469 -1.657694
2008-02-19 08:36:50 51°15.126 2°54.501 -999 0.090089 0.55848 -1.657694
2008-02-19 08:36:55 51°15.127 2°54.5 -999 0.090089 0.558491 -1.657694
2008-02-19 08:36:59 51°15.127 2°54.5 -999 0.090089 0.558491 -1.657694
2008-02-19 08:37:05 51°15.128 2°54.5 -999 0.090089 0.558501 -1.657694
2008-02-19 08:37:10 51°15.128 2°54.5 -999 0.090089 0.558501 -1.657694
2008-02-19 08:37:15 51°15.129 2°54.5 -999 0.090089 0.558512 -1.657694
2008-02-19 08:37:20 51°15.129 2°54.5 -999 0.090089 0.558533 -1.657694
2008-02-19 08:37:25 51°15.13 2°54.5 -999 0.090089 0.558543 -1.657694
2008-02-19 08:37:30 51°15.131 2°54.5 -999 0.090089 0.558543 -1.657694
2008-02-19 08:37:35 51°15.131 2°54.5 -999 0.090089 0.558564 -1.657694
2008-02-19 08:37:40 51°15.131 2°54.5 -999 0.090089 0.558564 -1.657694
2008-02-19 08:37:45 51°15.132 2°54.5 -999 0.090089 0.558575 -1.657694
2008-02-19 08:37:50 51°15.133 2°54.5 -999 0.090089 0.558586 -1.657694
2008-02-19 08:37:55 51°15.133 2°54.501 -999 0.089985 0.557925 -1.657694
2008-02-19 08:38:00 51°15.134 2°54.501 -999 0.089985 0.557935 -1.657694
2008-02-19 08:38:05 51°15.134 2°54.501 -999 0.089985 0.557946 -1.657694
2008-02-19 08:38:10 51°15.135 2°54.501 -999 0.089985 0.557946 -1.657694
2008-02-19 08:38:15 51°15.135 2°54.502 -999 0.089985 0.557956 -1.657694
2008-02-19 08:38:20 51°15.136 2°54.502 -999 0.089985 0.557967 -1.657694
2008-02-19 08:38:25 51°15.136 2°54.502 -999 0.089985 0.557988 -1.657694
2008-02-19 08:38:30 51°15.137 2°54.503 -999 0.089985 0.557999 -1.657694
2008-02-19 08:38:35 51°15.137 2°54.503 -999 0.089985 0.558009 -1.657694
2008-02-19 08:38:40 51°15.138 2°54.503 -999 0.089985 0.558009 -1.657694
2008-02-19 08:38:45 51°15.138 2°54.504 -999 0.089985 0.55802 -1.657694
2008-02-19 08:38:50 51°15.139 2°54.504 -999 0.089985 0.55803 -1.657694
2008-02-19 08:38:55 51°15.139 2°54.504 -999 0.089985 0.558051 -1.657694
2008-02-19 08:39:00 51°15.14 2°54.505 -999 0.089985 0.558062 -1.657694
2008-02-19 08:39:05 51°15.14 2°54.505 -999 0.089985 0.558072 -1.657694
2008-02-19 08:39:10 51°15.141 2°54.505 -999 0.089985 0.558072 -1.657694
2008-02-19 08:39:15 51°15.141 2°54.505 -999 0.089985 0.558083 -1.657694
2008-02-19 08:39:20 51°15.141 2°54.506 -999 0.089985 0.558104 -1.657694
2008-02-19 08:39:25 51°15.142 2°54.506 -999 0.089985 0.558115 -1.657694
2008-02-19 08:39:30 51°15.142 2°54.506 -999 0.089985 0.558125 -1.657694
2008-02-19 08:39:35 51°15.143 2°54.506 -999 0.089985 0.558146 -1.657694
2008-02-19 08:39:40 51°15.143 2°54.507 -999 0.089985 0.558146 -1.657694
2008-02-19 08:39:45 51°15.143 2°54.506 -999 0.089985 0.558157 -1.657694
2008-02-19 08:39:50 51°15.144 2°54.507 -999 0.089985 0.558167 -1.657694
2008-02-19 08:39:55 51°15.144 2°54.507 -999 0.089985 0.558178 -1.657694
2008-02-19 08:40:00 51°15.144 2°54.507 -999 0.089985 0.558189 -1.657694
2008-02-19 08:40:05 51°15.145 2°54.507 -999 0.089985 0.55821 -1.657694
2008-02-19 08:40:10 51°15.145 2°54.507 -999 0.089985 0.55821 -1.657694
2008-02-19 08:40:15 51°15.146 2°54.507 -999 0.089985 0.55822 -1.657694
2008-02-19 08:40:20 51°15.146 2°54.507 -999 0.089985 0.558231 -1.657694
2008-02-19 08:40:25 51°15.146 2°54.507 -999 0.089985 0.558252 -1.657694
2008-02-19 08:40:30 51°15.146 2°54.507 -999 0.089985 0.558262 -1.657694
2008-02-19 08:40:35 51°15.146 2°54.507 -999 0.089985 0.558273 -1.657694
2008-02-19 08:40:40 51°15.147 2°54.507 -999 0.089985 0.558273 -1.657694
2008-02-19 08:40:45 51°15.147 2°54.508 -999 0.089985 0.558294 -1.657694
2008-02-19 08:40:50 51°15.148 2°54.51 -999 0.089985 0.558294 -1.657694
2008-02-19 08:40:55 51°15.15 2°54.512 -999 0.089985 0.558305 -1.657694
2008-02-19 08:41:00 51°15.152 2°54.517 -999 0.089985 0.558326 -1.657694
2008-02-19 08:41:05 51°15.154 2°54.523 -999 0.089985 0.558336 -1.657694
2008-02-19 08:41:10 51°15.157 2°54.53 -999 0.089985 0.558336 -1.657694
2008-02-19 08:41:15 51°15.161 2°54.538 -999 0.089985 0.558336 -1.657694
2008-02-19 08:41:20 51°15.165 2°54.548 -999 0.089985 0.558357 -1.657694
2008-02-19 08:41:25 51°15.169 2°54.559 -999 0.089985 0.558368 -1.657694
2008-02-19 08:41:30 51°15.174 2°54.57 -999 0.089985 0.558379 -1.657694
2008-02-19 08:41:35 51°15.18 2°54.583 -999 0.089985 0.558389 -1.657694
2008-02-19 08:41:40 51°15.186 2°54.597 -999 0.089985 0.558389 -1.657694
2008-02-19 08:41:45 51°15.192 2°54.611 -999 0.089985 0.558421 -1.657694
2008-02-19 08:41:50 51°15.2 2°54.626 -999 0.089985 0.558431 -1.657694
2008-02-19 08:41:55 51°15.208 2°54.641 -999 0.089985 0.558442 -1.657694
2008-02-19 08:42:00 51°15.216 2°54.657 -999 0.089985 0.558453 -1.657694
2008-02-19 08:42:05 51°15.225 2°54.673 -999 0.089985 0.558474 -1.657694
2008-02-19 08:42:10 51°15.234 2°54.69 -999 0.089985 0.558474 -1.657694
2008-02-19 08:42:15 51°15.243 2°54.708 -999 0.089985 0.558484 -1.657694
2008-02-19 08:42:20 51°15.253 2°54.725 -999 0.089985 0.558484 -1.657694
2008-02-19 08:42:25 51°15.262 2°54.744 -999 0.089985 0.558505 -1.657694
2008-02-19 08:42:30 51°15.272 2°54.763 -999 0.089985 0.558516 -1.657694
2008-02-19 08:42:35 51°15.282 2°54.783 -999 0.089985 0.558527 -1.657694
2008-02-19 08:42:40 51°15.292 2°54.802 -999 0.089985 0.558527 -1.657694
2008-02-19 08:42:45 51°15.302 2°54.822 -999 0.089985 0.558537 -1.657694
2008-02-19 08:42:50 51°15.312 2°54.843 -999 0.089985 0.558558 -1.657694
2008-02-19 08:42:55 51°15.322 2°54.863 -999 0.089985 0.558569 -1.657694
2008-02-19 08:43:00 51°15.332 2°54.884 -999 0.089985 0.558579 -1.657694
2008-02-19 08:43:05 51°15.342 2°54.905 -999 0.089985 0.55859 -1.657694
2008-02-19 08:43:10 51°15.352 2°54.926 -999 0.089985 0.55859 -1.657694
2008-02-19 08:43:15 51°15.362 2°54.947 -999 0.089985 0.558601 -1.657694
2008-02-19 08:43:20 51°15.372 2°54.968 -999 0.089985 0.558622 -1.657694
2008-02-19 08:43:25 51°15.382 2°54.99 -999 0.089985 0.558632 -1.657694
2008-02-19 08:43:30 51°15.393 2°55.01 -999 0.089985 0.558653 -1.657694
2008-02-19 08:43:35 51°15.404 2°55.031 -999 0.089985 0.558664 -1.657694
2008-02-19 08:43:40 51°15.415 2°55.05 -999 0.089985 0.558664 -1.657694
2008-02-19 08:43:45 51°15.426 2°55.07 -999 0.089985 0.558685 -1.657694
2008-02-19 08:43:50 51°15.437 2°55.09 -999 0.089985 0.558685 -1.657694
2008-02-19 08:43:55 51°15.448 2°55.11 -999 0.089985 0.558696 -1.657694
2008-02-19 08:44:00 51°15.459 2°55.13 -999 0.089985 0.558706 -1.657694
2008-02-19 08:44:05 51°15.47 2°55.151 -999 0.089985 0.558717 -1.657694
2008-02-19 08:44:10 51°15.481 2°55.171 -999 0.089985 0.558717 -1.657694
2008-02-19 08:44:15 51°15.492 2°55.192 -999 0.089985 0.558727 -1.657694
2008-02-19 08:44:20 51°15.502 2°55.213 -999 0.089985 0.558738 -1.657694
2008-02-19 08:44:25 51°15.512 2°55.234 -999 0.089985 0.558749 -1.657694
2008-02-19 08:44:30 51°15.522 2°55.255 -999 0.089881 0.558097 -1.657694
2008-02-19 08:44:35 51°15.533 2°55.276 -999 0.089985 0.55878 -1.657694
2008-02-19 08:44:40 51°15.543 2°55.297 -999 0.089985 0.55878 -1.657694
2008-02-19 08:44:45 51°15.554 2°55.318 -999 0.089985 0.558791 -1.657694
2008-02-19 08:44:50 51°15.565 2°55.339 -999 0.089881 0.558129 -1.657694
2008-02-19 08:44:55 51°15.575 2°55.359 -999 0.089881 0.55815 -1.657694
2008-02-19 08:45:00 51°15.585 2°55.379 -999 0.089881 0.558161 -1.657694
2008-02-19 08:45:05 51°15.594 2°55.399 -999 0.089881 0.558171 -1.657694
2008-02-19 08:45:10 51°15.603 2°55.417 -999 0.089881 0.558171 -1.657694
2008-02-19 08:45:15 51°15.612 2°55.436 -999 0.089881 0.558182 -1.657694
2008-02-19 08:45:20 51°15.621 2°55.453 -999 0.089881 0.558203 -1.657694
2008-02-19 08:45:25 51°15.63 2°55.47 -999 0.089881 0.558214 -1.657694
2008-02-19 08:45:30 51°15.638 2°55.488 -999 0.089881 0.558235 -1.657694
2008-02-19 08:45:35 51°15.647 2°55.504 -999 0.089881 0.558235 -1.657694
2008-02-19 08:45:40 51°15.655 2°55.52 -999 0.089881 0.558235 -1.657694
2008-02-19 08:45:45 51°15.663 2°55.536 -999 0.089881 0.558256 -1.657694
2008-02-19 08:45:50 51°15.672 2°55.552 -999 0.089881 0.558267 -1.657694
2008-02-19 08:45:55 51°15.68 2°55.568 -999 0.089881 0.558277 -1.657694
2008-02-19 08:46:00 51°15.688 2°55.583 -999 0.089881 0.558288 -1.657694
2008-02-19 08:46:05 51°15.695 2°55.597 -999 0.089881 0.558309 -1.657694
2008-02-19 08:46:10 51°15.702 2°55.61 -999 0.089881 0.558309 -1.657694
2008-02-19 08:46:15 51°15.708 2°55.623 -999 0.089881 0.558319 -1.657694
2008-02-19 08:46:20 51°15.713 2°55.634 -999 0.089881 0.558341 -1.657694
2008-02-19 08:46:25 51°15.719 2°55.646 -999 0.089881 0.558341 -1.657694
2008-02-19 08:46:30 51°15.724 2°55.656 -999 0.089881 0.558362 -1.657694
2008-02-19 08:46:35 51°15.728 2°55.667 -999 0.089881 0.558372 -1.657694
2008-02-19 08:46:40 51°15.732 2°55.676 -999 0.089881 0.558372 -1.657694
2008-02-19 08:46:45 51°15.737 2°55.686 -999 0.089881 0.558383 -1.657694
2008-02-19 08:46:50 51°15.74 2°55.695 -999 0.089881 0.558393 -1.657694
2008-02-19 08:46:55 51°15.743 2°55.703 -999 0.089881 0.558404 -1.657694
2008-02-19 08:47:00 51°15.746 2°55.711 -999 0.089881 0.558415 -1.657694
2008-02-19 08:47:05 51°15.749 2°55.719 -999 0.089881 0.558436 -1.657694
2008-02-19 08:47:10 51°15.751 2°55.726 -999 0.089881 0.558436 -1.657694
2008-02-19 08:47:15 51°15.752 2°55.733 -999 0.089881 0.558446 -1.657694
2008-02-19 08:47:20 51°15.753 2°55.738 -999 0.089881 0.558457 -1.657694
2008-02-19 08:47:25 51°15.754 2°55.743 -999 0.089881 0.558478 -1.657694
2008-02-19 08:47:30 51°15.754 2°55.748 -999 0.089881 0.558489 -1.657694
2008-02-19 08:47:35 51°15.755 2°55.752 -999 0.089881 0.55851 -1.657694
2008-02-19 08:47:40 51°15.755 2°55.756 -999 0.089881 0.55851 -1.657694
2008-02-19 08:47:45 51°15.755 2°55.76 -999 0.089881 0.55852 -1.657694
2008-02-19 08:47:50 51°15.755 2°55.765 -999 0.089881 0.558531 -1.657694
2008-02-19 08:47:55 51°15.755 2°55.77 -999 0.089881 0.558542 -1.657694
2008-02-19 08:48:00 51°15.755 2°55.775 -999 0.089881 0.558552 -1.657694
2008-02-19 08:48:05 51°15.756 2°55.78 -999 0.089881 0.558563 -1.657694
2008-02-19 08:48:10 51°15.756 2°55.786 -999 0.089881 0.558563 -1.657694
2008-02-19 08:48:15 51°15.757 2°55.792 -999 0.089881 0.558584 -1.691403
2008-02-19 08:48:20 51°15.759 2°55.797 -999 0.089881 0.558616 -1.657694
2008-02-19 08:48:25 51°15.76 2°55.802 -999 0.089881 0.558626 -1.657694
2008-02-19 08:48:30 51°15.762 2°55.807 -999 0.089881 0.558647 -1.657694
2008-02-19 08:48:35 51°15.765 2°55.812 -999 0.089881 0.558669 -1.657694
2008-02-19 08:48:40 51°15.767 2°55.816 -999 0.089881 0.558669 -1.657694
2008-02-19 08:48:45 51°15.77 2°55.819 -999 0.089881 0.55869 -1.657694
2008-02-19 08:48:50 51°15.772 2°55.823 -999 0.089881 0.55869 -1.657694
2008-02-19 08:48:55 51°15.776 2°55.825 -999 0.089881 0.5587 -1.657694
2008-02-19 08:49:00 51°15.778 2°55.827 -999 0.089881 0.558711 -1.657694
2008-02-19 08:49:05 51°15.781 2°55.829 -999 0.089881 0.558722 -1.657694
2008-02-19 08:49:10 51°15.785 2°55.831 -999 0.089881 0.558722 -1.657694
2008-02-19 08:49:15 51°15.788 2°55.833 -999 0.089881 0.558722 -1.657694
2008-02-19 08:49:20 51°15.792 2°55.834 -999 0.089881 0.558722 -1.657694
2008-02-19 08:49:25 51°15.795 2°55.835 -999 0.089881 0.558722 -1.657694
2008-02-19 08:49:30 51°15.799 2°55.836 -999 0.089881 0.558722 -1.657694
2008-02-19 08:49:35 51°15.802 2°55.837 -999 0.089881 0.558722 -1.657694
2008-02-19 08:49:40 51°15.804 2°55.837 -999 0.089881 0.558722 -1.657694
2008-02-19 08:49:45 51°15.806 2°55.838 -999 0.089881 0.558722 -1.657694
2008-02-19 08:49:50 51°15.807 2°55.837 -999 0.089881 0.558732 -1.657694
2008-02-19 08:49:55 51°15.808 2°55.837 -999 0.089881 0.558743 -1.657694
2008-02-19 08:50:00 51°15.808 2°55.836 -999 0.089881 0.558753 -1.657694
2008-02-19 08:50:05 51°15.808 2°55.836 -999 0.089881 0.558775 -1.657694
2008-02-19 08:50:10 51°15.808 2°55.835 -999 0.089881 0.558775 -1.657694
2008-02-19 08:50:15 51°15.808 2°55.835 -999 0.089881 0.558785 -1.657694
2008-02-19 08:50:20 51°15.808 2°55.835 -999 0.089881 0.558806 -1.657694
2008-02-19 08:50:25 51°15.808 2°55.834 -999 0.089881 0.558828 -1.657694
2008-02-19 08:50:30 51°15.809 2°55.833 -999 0.089778 0.558165 -1.657694
2008-02-19 08:50:35 51°15.809 2°55.833 -999 0.089778 0.558176 -1.657694
2008-02-19 08:50:40 51°15.809 2°55.832 -999 0.089778 0.558176 -1.657694
2008-02-19 08:50:45 51°15.809 2°55.832 -999 0.089778 0.558197 -1.657694
2008-02-19 08:50:50 51°15.809 2°55.831 -999 0.089778 0.558218 -1.657694
2008-02-19 08:50:55 51°15.809 2°55.831 -999 0.089778 0.558229 -1.657694
2008-02-19 08:51:00 51°15.809 2°55.83 -999 0.089778 0.558239 -1.657694
2008-02-19 08:51:05 51°15.809 2°55.83 -999 0.089778 0.55826 -1.657694
2008-02-19 08:51:10 51°15.809 2°55.829 -999 0.089778 0.55826 -1.657694
2008-02-19 08:51:15 51°15.809 2°55.829 -999 0.089778 0.558282 -1.657694
2008-02-19 08:51:20 51°15.809 2°55.828 -999 0.089778 0.558292 -1.657694
2008-02-19 08:51:25 51°15.81 2°55.828 -999 0.089778 0.558303 -1.657694
2008-02-19 08:51:30 51°15.81 2°55.827 -999 0.089778 0.558324 -1.657694
2008-02-19 08:51:35 51°15.81 2°55.827 -999 0.089778 0.558334 -1.657694
2008-02-19 08:51:40 51°15.81 2°55.826 -999 0.089778 0.558334 -1.657694
2008-02-19 08:51:46 51°15.81 2°55.825 -999 0.089778 0.558345 -1.657694
2008-02-19 08:51:50 51°15.81 2°55.825 -999 0.089778 0.558356 -1.657694
2008-02-19 08:51:55 51°15.81 2°55.824 -999 0.089778 0.558377 -1.657694
2008-02-19 08:52:00 51°15.81 2°55.823 -999 0.089778 0.558387 -1.657694
2008-02-19 08:52:05 51°15.81 2°55.823 -999 0.089778 0.558398 -1.657694
2008-02-19 08:52:10 51°15.81 2°55.822 -999 0.089778 0.558398 -1.657694
2008-02-19 08:52:15 51°15.811 2°55.821 -999 0.089778 0.558419 -1.657694
2008-02-19 08:52:20 51°15.811 2°55.82 -999 0.089778 0.55843 -1.657694
2008-02-19 08:52:25 51°15.811 2°55.82 -999 0.089778 0.55844 -1.657694
2008-02-19 08:52:30 51°15.811 2°55.819 -999 0.089778 0.558462 -1.657694
2008-02-19 08:52:35 51°15.811 2°55.818 -999 0.089778 0.558472 -1.657694
2008-02-19 08:52:40 51°15.811 2°55.818 -999 0.089778 0.558472 -1.657694
2008-02-19 08:52:45 51°15.811 2°55.817 -999 0.089778 0.558493 -1.657694
2008-02-19 08:52:50 51°15.811 2°55.816 -999 0.089778 0.558504 -1.657694
2008-02-19 08:52:55 51°15.811 2°55.815 -999 0.089778 0.558515 -1.657694
2008-02-19 08:53:00 51°15.811 2°55.814 -999 0.089778 0.558536 -1.657694
2008-02-19 08:53:05 51°15.811 2°55.813 -999 0.089778 0.558546 -1.657694
2008-02-19 08:53:10 51°15.811 2°55.812 -999 0.089778 0.558546 -1.657694
2008-02-19 08:53:15 51°15.811 2°55.811 -999 0.089778 0.558568 -1.657694
2008-02-19 08:53:20 51°15.811 2°55.811 -999 0.089778 0.558578 -1.657694
2008-02-19 08:53:25 51°15.811 2°55.81 -999 0.089778 0.558589 -1.657694
2008-02-19 08:53:30 51°15.811 2°55.809 -999 0.089778 0.55861 -1.657694
2008-02-19 08:53:35 51°15.811 2°55.808 -999 0.089778 0.558621 -1.657694
2008-02-19 08:53:40 51°15.811 2°55.807 -999 0.089778 0.558621 -1.657694
2008-02-19 08:53:45 51°15.811 2°55.806 -999 0.089778 0.558642 -1.657694
2008-02-19 08:53:50 51°15.811 2°55.805 -999 0.089778 0.558652 -1.657694
2008-02-19 08:53:55 51°15.812 2°55.804 -999 0.089778 0.558674 -1.657694
2008-02-19 08:54:00 51°15.812 2°55.803 -999 0.089778 0.558695 -1.657694
2008-02-19 08:54:05 51°15.812 2°55.803 -999 0.089778 0.558705 -1.657694
2008-02-19 08:54:10 51°15.812 2°55.802 -999 0.089778 0.558705 -1.657694
2008-02-19 08:54:15 51°15.812 2°55.801 -999 0.089778 0.558727 -1.657694
2008-02-19 08:54:20 51°15.812 2°55.8 -999 0.089778 0.558737 -1.657694
2008-02-19 08:54:25 51°15.812 2°55.799 -999 0.089778 0.558759 -1.657694
2008-02-19 08:54:30 51°15.813 2°55.798 -999 0.089778 0.558769 -1.657694
2008-02-19 08:54:35 51°15.813 2°55.797 -999 0.089778 0.55879 -1.657694
2008-02-19 08:54:40 51°15.813 2°55.796 -999 0.089778 0.55879 -1.657694
2008-02-19 08:54:45 51°15.813 2°55.795 -999 0.089778 0.558801 -1.657694
2008-02-19 08:54:50 51°15.813 2°55.794 -999 0.089778 0.558822 -1.657694
2008-02-19 08:54:55 51°15.814 2°55.794 -999 0.089778 0.558833 -1.657694
2008-02-19 08:55:00 51°15.814 2°55.793 -999 0.089778 0.558854 -1.657694
2008-02-19 08:55:05 51°15.814 2°55.792 -999 0.089778 0.558875 -1.657694
2008-02-19 08:55:10 51°15.814 2°55.791 -999 0.089778 0.558875 -1.657694
2008-02-19 08:55:15 51°15.815 2°55.79 -999 0.089778 0.558875 -1.657694
2008-02-19 08:55:20 51°15.815 2°55.789 -999 0.089778 0.558907 -1.657694
2008-02-19 08:55:25 51°15.815 2°55.789 -999 0.089778 0.558918 -1.657694
2008-02-19 08:55:30 51°15.816 2°55.788 -999 0.089778 0.558939 -1.657694
2008-02-19 08:55:35 51°15.816 2°55.787 -999 0.089778 0.55895 -1.657694
2008-02-19 08:55:40 51°15.816 2°55.786 -999 0.089778 0.55895 -1.657694
2008-02-19 08:55:45 51°15.816 2°55.785 -999 0.089778 0.558971 -1.657694
2008-02-19 08:55:50 51°15.817 2°55.785 -999 0.089674 0.558307 -1.657694
2008-02-19 08:55:55 51°15.817 2°55.784 -999 0.089674 0.558318 -1.657694
2008-02-19 08:56:00 51°15.818 2°55.783 -999 0.089674 0.558329 -1.657694
2008-02-19 08:56:05 51°15.818 2°55.783 -999 0.089674 0.55836 -1.657694
2008-02-19 08:56:10 51°15.819 2°55.782 -999 0.089674 0.55836 -1.657694
2008-02-19 08:56:15 51°15.819 2°55.781 -999 0.089674 0.558371 -1.657694
2008-02-19 08:56:20 51°15.82 2°55.781 -999 0.089674 0.558382 -1.657694
2008-02-19 08:56:25 51°15.82 2°55.78 -999 0.089674 0.558403 -1.657694
2008-02-19 08:56:30 51°15.82 2°55.78 -999 0.089674 0.558413 -1.657694
2008-02-19 08:56:35 51°15.821 2°55.779 -999 0.089674 0.558435 -1.657694
2008-02-19 08:56:40 51°15.822 2°55.778 -999 0.089674 0.558435 -1.657694
2008-02-19 08:56:45 51°15.822 2°55.778 -999 0.089674 0.558445 -1.657694
2008-02-19 08:56:50 51°15.823 2°55.778 -999 0.089674 0.558456 -1.657694
2008-02-19 08:56:55 51°15.823 2°55.777 -999 0.089674 0.558477 -1.657694
2008-02-19 08:57:00 51°15.824 2°55.776 -999 0.089674 0.558488 -1.657694
2008-02-19 08:57:05 51°15.824 2°55.776 -999 0.089674 0.558509 -1.657694
2008-02-19 08:57:10 51°15.825 2°55.775 -999 0.089674 0.558509 -1.657694
2008-02-19 08:57:15 51°15.826 2°55.775 -999 0.089674 0.55852 -1.657694
2008-02-19 08:57:20 51°15.826 2°55.775 -999 0.089674 0.558541 -1.657694
2008-02-19 08:57:25 51°15.827 2°55.775 -999 0.089674 0.558551 -1.657694
2008-02-19 08:57:30 51°15.827 2°55.774 -999 0.089674 0.558562 -1.657694
2008-02-19 08:57:35 51°15.828 2°55.774 -999 0.089674 0.558583 -1.657694
2008-02-19 08:57:40 51°15.828 2°55.773 -999 0.089674 0.558583 -1.657694
2008-02-19 08:57:45 51°15.829 2°55.773 -999 0.089674 0.558594 -1.657694
2008-02-19 08:57:50 51°15.829 2°55.772 -999 0.089674 0.558605 -1.657694
2008-02-19 08:57:55 51°15.83 2°55.772 -999 0.089674 0.558626 -1.657694
2008-02-19 08:58:00 51°15.83 2°55.771 -999 0.089674 0.558636 -1.657694
2008-02-19 08:58:05 51°15.831 2°55.771 -999 0.089674 0.558658 -1.657694
2008-02-19 08:58:10 51°15.831 2°55.771 -999 0.089674 0.558658 -1.657694
2008-02-19 08:58:15 51°15.832 2°55.771 -999 0.089674 0.558668 -1.657694
2008-02-19 08:58:20 51°15.833 2°55.771 -999 0.089674 0.558679 -1.657694
2008-02-19 08:58:25 51°15.834 2°55.771 -999 0.089674 0.558689 -1.657694
2008-02-19 08:58:30 51°15.834 2°55.771 -999 0.089674 0.558711 -1.657694
2008-02-19 08:58:35 51°15.835 2°55.771 -999 0.089674 0.558721 -1.657694
2008-02-19 08:58:40 51°15.835 2°55.771 -999 0.089674 0.558721 -1.657694
2008-02-19 08:58:45 51°15.836 2°55.77 -999 0.089674 0.558743 -1.657694
2008-02-19 08:58:50 51°15.837 2°55.77 -999 0.089674 0.558753 -1.657694
2008-02-19 08:58:55 51°15.837 2°55.77 -999 0.089674 0.558774 -1.657694
2008-02-19 08:59:00 51°15.838 2°55.771 -999 0.089674 0.558785 -1.657694
2008-02-19 08:59:05 51°15.839 2°55.771 -999 0.089674 0.558796 -1.657694
2008-02-19 08:59:10 51°15.839 2°55.771 -999 0.089674 0.558796 -1.657694
2008-02-19 08:59:15 51°15.84 2°55.77 -999 0.089674 0.558817 -1.657694
2008-02-19 08:59:20 51°15.84 2°55.77 -999 0.089674 0.558828 -1.657694
2008-02-19 08:59:25 51°15.841 2°55.77 -999 0.089674 0.558838 -1.657694
2008-02-19 08:59:30 51°15.842 2°55.77 -999 0.089674 0.558849 -1.657694
2008-02-19 08:59:35 51°15.842 2°55.77 -999 0.089674 0.55887 -1.657694
2008-02-19 08:59:40 51°15.843 2°55.77 -999 0.089674 0.55887 -1.657694
2008-02-19 08:59:45 51°15.844 2°55.77 -999 0.089674 0.558891 -1.657694
2008-02-19 08:59:50 51°15.844 2°55.77 -999 0.089674 0.558902 -1.657694
2008-02-19 08:59:55 51°15.845 2°55.77 -999 0.089674 0.558923 -1.657694
2008-02-19 09:00:00 51°15.846 2°55.77 -999 0.089674 0.558934 -1.657694
2008-02-19 09:00:05 51°15.846 2°55.77 -999 0.089674 0.558955 -1.657694
2008-02-19 09:00:10 51°15.847 2°55.77 -999 0.089674 0.558955 -1.657694
2008-02-19 09:00:15 51°15.848 2°55.771 -999 0.089674 0.558966 -1.657694
2008-02-19 09:00:20 51°15.849 2°55.771 -999 0.089674 0.558987 -1.657694
2008-02-19 09:00:25 51°15.851 2°55.772 -999 0.089674 0.558998 -1.657694
2008-02-19 09:00:30 51°15.852 2°55.773 -999 0.089674 0.559008 -1.657694
2008-02-19 09:00:35 51°15.854 2°55.774 -999 0.089674 0.55903 -1.657694
2008-02-19 09:00:40 51°15.855 2°55.776 -999 0.089674 0.55903 -1.657694
2008-02-19 09:00:45 51°15.857 2°55.778 -999 0.089674 0.55904 -1.657694
2008-02-19 09:00:50 51°15.859 2°55.78 -999 0.089674 0.559062 -1.657694
2008-02-19 09:00:55 51°15.861 2°55.782 -999 0.089674 0.559072 -1.657694
2008-02-19 09:01:00 51°15.862 2°55.785 -999 0.089674 0.559083 -1.657694
2008-02-19 09:01:05 51°15.864 2°55.788 -999 0.08957 0.558429 -1.657694
2008-02-19 09:01:10 51°15.866 2°55.792 -999 0.08957 0.558429 -1.657694
2008-02-19 09:01:15 51°15.867 2°55.796 -999 0.08957 0.55845 -1.657694
2008-02-19 09:01:20 51°15.868 2°55.801 -999 0.08957 0.558472 -1.657694
2008-02-19 09:01:25 51°15.87 2°55.806 -999 0.08957 0.558482 -1.657694
2008-02-19 09:01:30 51°15.871 2°55.811 -999 0.08957 0.558504 -1.657694
2008-02-19 09:01:35 51°15.871 2°55.817 -999 0.08957 0.558525 -1.657694
2008-02-19 09:01:40 51°15.872 2°55.823 -999 0.08957 0.558525 -1.657694
2008-02-19 09:01:45 51°15.872 2°55.829 -999 0.08957 0.558535 -1.657694
2008-02-19 09:01:50 51°15.872 2°55.835 -999 0.08957 0.558557 -1.657694
2008-02-19 09:01:55 51°15.872 2°55.842 -999 0.08957 0.558578 -1.657694
2008-02-19 09:02:00 51°15.871 2°55.849 -999 0.08957 0.558599 -1.657694
2008-02-19 09:02:05 51°15.871 2°55.856 -999 0.08957 0.55861 -1.657694
2008-02-19 09:02:10 51°15.871 2°55.864 -999 0.08957 0.55861 -1.657694
2008-02-19 09:02:15 51°15.871 2°55.872 -999 0.08957 0.55862 -1.657694
2008-02-19 09:02:20 51°15.87 2°55.88 -999 0.08957 0.558642 -1.657694
2008-02-19 09:02:25 51°15.87 2°55.888 -999 0.08957 0.558652 -1.657694
2008-02-19 09:02:30 51°15.87 2°55.897 -999 0.08957 0.558674 -1.657694
2008-02-19 09:02:35 51°15.87 2°55.906 -999 0.08957 0.558695 -1.657694
2008-02-19 09:02:40 51°15.87 2°55.915 -999 0.08957 0.558695 -1.657694
2008-02-19 09:02:46 51°15.871 2°55.926 -999 0.08957 0.558716 -1.657694
2008-02-19 09:02:50 51°15.871 2°55.933 -999 0.08957 0.558738 -1.657694
2008-02-19 09:02:55 51°15.872 2°55.942 -999 0.08957 0.558759 -1.657694
2008-02-19 09:03:00 51°15.873 2°55.951 -999 0.08957 0.55878 -1.657694
2008-02-19 09:03:05 51°15.875 2°55.959 -999 0.08957 0.558791 -1.657694
2008-02-19 09:03:10 51°15.877 2°55.968 -999 0.08957 0.558791 -1.657694
2008-02-19 09:03:15 51°15.879 2°55.976 -999 0.08957 0.558801 -1.657694
2008-02-19 09:03:20 51°15.881 2°55.983 -999 0.08957 0.558812 -1.657694
2008-02-19 09:03:25 51°15.882 2°55.99 -999 0.08957 0.558833 -1.657694
2008-02-19 09:03:30 51°15.884 2°55.997 -999 0.08957 0.558833 -1.657694
2008-02-19 09:03:35 51°15.886 2°56.004 -999 0.08957 0.558844 -1.657694
2008-02-19 09:03:40 51°15.888 2°56.01 -999 0.08957 0.558844 -1.657694
2008-02-19 09:03:45 51°15.889 2°56.017 -999 0.08957 0.558855 -1.657694
2008-02-19 09:03:50 51°15.891 2°56.022 -999 0.08957 0.558865 -1.657694
2008-02-19 09:03:55 51°15.893 2°56.028 -999 0.08957 0.558876 -1.657694
2008-02-19 09:04:00 51°15.894 2°56.033 -999 0.08957 0.558887 -1.657694
2008-02-19 09:04:05 51°15.895 2°56.037 -999 0.08957 0.558918 -1.657694
2008-02-19 09:04:10 51°15.897 2°56.042 -999 0.08957 0.558918 -1.657694
2008-02-19 09:04:15 51°15.898 2°56.045 -999 0.08957 0.558929 -1.657694
2008-02-19 09:04:20 51°15.899 2°56.049 -999 0.08957 0.55895 -1.657694
2008-02-19 09:04:25 51°15.9 2°56.052 -999 0.08957 0.558961 -1.657694
2008-02-19 09:04:30 51°15.9 2°56.055 -999 0.08957 0.558982 -1.657694
2008-02-19 09:04:35 51°15.901 2°56.058 -999 0.08957 0.558993 -1.657694
2008-02-19 09:04:40 51°15.901 2°56.061 -999 0.08957 0.558993 -1.657694
2008-02-19 09:04:45 51°15.902 2°56.063 -999 0.08957 0.559004 -1.657694
2008-02-19 09:04:50 51°15.902 2°56.065 -999 0.08957 0.559025 -1.657694
2008-02-19 09:04:55 51°15.903 2°56.067 -999 0.08957 0.559036 -1.657694
2008-02-19 09:05:00 51°15.903 2°56.069 -999 0.08957 0.559057 -1.657694
2008-02-19 09:05:05 51°15.903 2°56.071 -999 0.08957 0.559068 -1.657694
2008-02-19 09:05:10 51°15.904 2°56.073 -999 0.08957 0.559068 -1.657694
2008-02-19 09:05:15 51°15.904 2°56.075 -999 0.08957 0.559089 -1.657694
2008-02-19 09:05:20 51°15.904 2°56.077 -999 0.08957 0.5591 -1.657694
2008-02-19 09:05:25 51°15.904 2°56.079 -999 0.08957 0.559121 -1.657694
2008-02-19 09:05:30 51°15.905 2°56.081 -999 0.08957 0.559142 -1.657694
2008-02-19 09:05:35 51°15.905 2°56.082 -999 0.089466 0.558477 -1.657694
2008-02-19 09:05:40 51°15.905 2°56.084 -999 0.089466 0.558477 -1.657694
2008-02-19 09:05:45 51°15.905 2°56.086 -999 0.089466 0.558498 -1.657694
2008-02-19 09:05:50 51°15.905 2°56.088 -999 0.089466 0.558509 -1.657694
2008-02-19 09:05:55 51°15.905 2°56.089 -999 0.089466 0.55852 -1.657694
2008-02-19 09:06:00 51°15.905 2°56.091 -999 0.089466 0.558541 -1.657694
2008-02-19 09:06:05 51°15.905 2°56.093 -999 0.089466 0.558552 -1.657694
2008-02-19 09:06:10 51°15.905 2°56.094 -999 0.089466 0.558552 -1.657694
2008-02-19 09:06:15 51°15.905 2°56.096 -999 0.089466 0.558573 -1.657694
2008-02-19 09:06:20 51°15.905 2°56.097 -999 0.089466 0.558573 -1.657694
2008-02-19 09:06:25 51°15.905 2°56.099 -999 0.089466 0.558594 -1.657694
2008-02-19 09:06:30 51°15.905 2°56.1 -999 0.089466 0.558605 -1.657694
2008-02-19 09:06:35 51°15.904 2°56.102 -999 0.089466 0.558626 -1.657694
2008-02-19 09:06:40 51°15.904 2°56.103 -999 0.089466 0.558626 -1.657694
2008-02-19 09:06:45 51°15.904 2°56.105 -999 0.089466 0.558637 -1.657694
2008-02-19 09:06:50 51°15.903 2°56.106 -999 0.089466 0.558647 -1.657694
2008-02-19 09:06:55 51°15.903 2°56.108 -999 0.089466 0.558669 -1.657694
2008-02-19 09:07:00 51°15.903 2°56.109 -999 0.089466 0.558679 -1.657694
2008-02-19 09:07:05 51°15.903 2°56.11 -999 0.089466 0.55869 -1.657694
2008-02-19 09:07:10 51°15.903 2°56.112 -999 0.089466 0.55869 -1.657694
2008-02-19 09:07:15 51°15.903 2°56.113 -999 0.089466 0.558701 -1.657694
2008-02-19 09:07:20 51°15.902 2°56.115 -999 0.089466 0.558722 -1.657694
2008-02-19 09:07:25 51°15.902 2°56.116 -999 0.089466 0.558733 -1.657694
2008-02-19 09:07:30 51°15.902 2°56.117 -999 0.089466 0.558743 -1.657694
2008-02-19 09:07:35 51°15.902 2°56.119 -999 0.089466 0.558765 -1.657694
2008-02-19 09:07:40 51°15.902 2°56.12 -999 0.089466 0.558765 -1.657694
2008-02-19 09:07:45 51°15.902 2°56.121 -999 0.089466 0.558775 -1.657694
2008-02-19 09:07:50 51°15.901 2°56.123 -999 0.089466 0.558797 -1.657694
2008-02-19 09:07:55 51°15.901 2°56.124 -999 0.089466 0.558807 -1.657694
2008-02-19 09:08:00 51°15.901 2°56.125 -999 0.089466 0.558829 -1.657694
2008-02-19 09:08:05 51°15.901 2°56.127 -999 0.089466 0.558839 -1.657694
2008-02-19 09:08:10 51°15.901 2°56.128 -999 0.089466 0.558839 -1.657694
2008-02-19 09:08:15 51°15.901 2°56.129 -999 0.089466 0.55885 -1.657694
2008-02-19 09:08:20 51°15.9 2°56.13 -999 0.089466 0.558861 -1.657694
2008-02-19 09:08:25 51°15.9 2°56.131 -999 0.089466 0.558871 -1.657694
2008-02-19 09:08:30 51°15.9 2°56.133 -999 0.089466 0.558882 -1.657694
2008-02-19 09:08:35 51°15.9 2°56.134 -999 0.089466 0.558903 -1.657694
2008-02-19 09:08:40 51°15.9 2°56.135 -999 0.089466 0.558903 -1.657694
2008-02-19 09:08:45 51°15.9 2°56.136 -999 0.089466 0.558914 -1.657694
2008-02-19 09:08:50 51°15.9 2°56.137 -999 0.089466 0.558935 -1.657694
2008-02-19 09:08:55 51°15.9 2°56.139 -999 0.089466 0.558935 -1.657694
2008-02-19 09:09:00 51°15.899 2°56.14 -999 0.089466 0.558957 -1.657694
2008-02-19 09:09:05 51°15.899 2°56.141 -999 0.089466 0.558967 -1.657694
2008-02-19 09:09:10 51°15.899 2°56.142 -999 0.089466 0.558967 -1.657694
2008-02-19 09:09:15 51°15.899 2°56.143 -999 0.089466 0.558978 -1.657694
2008-02-19 09:09:20 51°15.899 2°56.144 -999 0.089466 0.558999 -1.657694
2008-02-19 09:09:25 51°15.899 2°56.145 -999 0.089466 0.55901 -1.657694
2008-02-19 09:09:30 51°15.898 2°56.147 -999 0.089466 0.559021 -1.657694
2008-02-19 09:09:35 51°15.898 2°56.148 -999 0.089466 0.559031 -1.657694
2008-02-19 09:09:40 51°15.898 2°56.149 -999 0.089466 0.559031 -1.657694
2008-02-19 09:09:46 51°15.898 2°56.15 -999 0.089466 0.559053 -1.657694
2008-02-19 09:09:50 51°15.898 2°56.151 -999 0.089466 0.559063 -1.657694
2008-02-19 09:09:55 51°15.898 2°56.152 -999 0.089466 0.559074 -1.657694
2008-02-19 09:10:00 51°15.897 2°56.153 -999 0.089466 0.559095 -1.657694
2008-02-19 09:10:05 51°15.897 2°56.154 -999 0.089466 0.559106 -1.657694
2008-02-19 09:10:10 51°15.897 2°56.155 -999 0.089466 0.559106 -1.657694
2008-02-19 09:10:15 51°15.897 2°56.156 -999 0.089362 0.55844 -1.657694
2008-02-19 09:10:20 51°15.897 2°56.157 -999 0.089362 0.558461 -1.657694
2008-02-19 09:10:25 51°15.897 2°56.158 -999 0.089362 0.558472 -1.657694
2008-02-19 09:10:30 51°15.897 2°56.159 -999 0.089362 0.558483 -1.657694
2008-02-19 09:10:35 51°15.896 2°56.16 -999 0.089362 0.558493 -1.657694
2008-02-19 09:10:40 51°15.896 2°56.161 -999 0.089362 0.558493 -1.657694
2008-02-19 09:10:45 51°15.896 2°56.162 -999 0.089362 0.558515 -1.657694
2008-02-19 09:10:50 51°15.896 2°56.163 -999 0.089362 0.558525 -1.657694
2008-02-19 09:10:55 51°15.895 2°56.164 -999 0.089362 0.558536 -1.657694
2008-02-19 09:11:00 51°15.895 2°56.165 -999 0.089362 0.558557 -1.657694
2008-02-19 09:11:05 51°15.895 2°56.166 -999 0.089362 0.558568 -1.657694
2008-02-19 09:11:10 51°15.895 2°56.167 -999 0.089362 0.558568 -1.657694
2008-02-19 09:11:15 51°15.895 2°56.168 -999 0.089362 0.558579 -1.657694
2008-02-19 09:11:20 51°15.894 2°56.168 -999 0.089362 0.5586 -1.657694
2008-02-19 09:11:25 51°15.894 2°56.169 -999 0.089362 0.558611 -1.657694
2008-02-19 09:11:30 51°15.894 2°56.17 -999 0.089362 0.558621 -1.657694
2008-02-19 09:11:35 51°15.894 2°56.171 -999 0.089362 0.558643 -1.657694
2008-02-19 09:11:40 51°15.894 2°56.172 -999 0.089362 0.558643 -1.657694
2008-02-19 09:11:45 51°15.894 2°56.173 -999 0.089362 0.558653 -1.657694
2008-02-19 09:11:50 51°15.893 2°56.173 -999 0.089362 0.558664 -1.657694
2008-02-19 09:11:55 51°15.893 2°56.174 -999 0.089362 0.558685 -1.657694
2008-02-19 09:12:00 51°15.893 2°56.175 -999 0.089362 0.558696 -1.657694
2008-02-19 09:12:06 51°15.893 2°56.176 -999 0.089362 0.558707 -1.657694
2008-02-19 09:12:10 51°15.892 2°56.177 -999 0.089362 0.558707 -1.657694
2008-02-19 09:12:15 51°15.892 2°56.178 -999 0.089362 0.558728 -1.657694
2008-02-19 09:12:20 51°15.892 2°56.178 -999 0.089362 0.558749 -1.657694
2008-02-19 09:12:25 51°15.892 2°56.179 -999 0.089362 0.558749 -1.657694
2008-02-19 09:12:30 51°15.892 2°56.18 -999 0.089362 0.558771 -1.657694
2008-02-19 09:12:35 51°15.892 2°56.181 -999 0.089362 0.558781 -1.657694
2008-02-19 09:12:40 51°15.891 2°56.182 -999 0.089362 0.558781 -1.657694
2008-02-19 09:12:45 51°15.891 2°56.183 -999 0.089362 0.558803 -1.657694
2008-02-19 09:12:50 51°15.891 2°56.183 -999 0.089362 0.558813 -1.657694
2008-02-19 09:12:55 51°15.891 2°56.184 -999 0.089362 0.558824 -1.657694
2008-02-19 09:13:00 51°15.891 2°56.185 -999 0.089362 0.558845 -1.657694
2008-02-19 09:13:05 51°15.891 2°56.186 -999 0.089362 0.558856 -1.657694
2008-02-19 09:13:10 51°15.891 2°56.187 -999 0.089362 0.558856 -1.657694
2008-02-19 09:13:15 51°15.891 2°56.188 -999 0.089362 0.558867 -1.657694
2008-02-19 09:13:20 51°15.891 2°56.189 -999 0.089362 0.558888 -1.657694
2008-02-19 09:13:25 51°15.891 2°56.19 -999 0.089362 0.558899 -1.657694
2008-02-19 09:13:30 51°15.89 2°56.19 -999 0.089362 0.558909 -1.657694
2008-02-19 09:13:35 51°15.89 2°56.191 -999 0.089362 0.558931 -1.657694
2008-02-19 09:13:40 51°15.89 2°56.192 -999 0.089362 0.558931 -1.657694
2008-02-19 09:13:46 51°15.89 2°56.193 -999 0.089362 0.558942 -1.657694
2008-02-19 09:13:50 51°15.889 2°56.193 -999 0.089362 0.558963 -1.657694
2008-02-19 09:13:55 51°15.889 2°56.194 -999 0.089362 0.558974 -1.657694
2008-02-19 09:14:00 51°15.889 2°56.195 -999 0.089362 0.558984 -1.657694
2008-02-19 09:14:05 51°15.889 2°56.195 -999 0.089362 0.559006 -1.657694
2008-02-19 09:14:10 51°15.889 2°56.196 -999 0.089362 0.559006 -1.657694
2008-02-19 09:14:15 51°15.888 2°56.197 -999 0.089362 0.559016 -1.657694
2008-02-19 09:14:20 51°15.888 2°56.197 -999 0.089362 0.559038 -1.657694
2008-02-19 09:14:26 51°15.888 2°56.198 -999 0.089362 0.559048 -1.657694
2008-02-19 09:14:30 51°15.888 2°56.199 -999 0.089362 0.55907 -1.657694
2008-02-19 09:14:35 51°15.888 2°56.2 -999 0.089362 0.55908 -1.657694
2008-02-19 09:14:40 51°15.888 2°56.2 -999 0.089362 0.55908 -1.657694